Observation data for Stamford on 07/10/2018      Previous  Date  Next       Current Mesonet Observations  Soil Data  Daily Summary Page  Observations in Plain Language
KST2 100500Z 17005KT 25/22 A3017 RMK A01 T02500216  RH  081%=      5-min Rain = 0
KST2 100501Z 17006KT 25/22 A3017 RMK A01 T02500216  RH  081%=      5-min Rain = 0
KST2 100502Z 18005KT 25/22 A3017 RMK A01 T02500215  RH  081%=      5-min Rain = 0
KST2 100503Z 18005KT 25/22 A3017 RMK A01 T02500216  RH  081%=      5-min Rain = 0
KST2 100504Z 17006KT 25/22 A3017 RMK A01 T02500215  RH  081%=      5-min Rain = 0
KST2 100505Z 18005KT 25/22 A3017 RMK A01 T02500215  RH  081%=      5-min Rain = 0
KST2 100506Z 18006KT 25/22 A3017 RMK A01 T02500215  RH  081%=      5-min Rain = 0
KST2 100507Z 18006KT 25/22 A3017 RMK A01 T02500215  RH  081%=      5-min Rain = 0
KST2 100508Z 18006KT 25/22 A3017 RMK A01 T02500215  RH  081%=      5-min Rain = 0
KST2 100509Z 18007KT 25/22 A3017 RMK A01 T02510215  RH  080%=      5-min Rain = 0
KST2 100510Z 19005KT 25/21 A3017 RMK A01 T02510214  RH  080%=      5-min Rain = 0
KST2 100511Z 19006KT 25/21 A3017 RMK A01 T02510214  RH  080%=      5-min Rain = 0
KST2 100512Z 19005KT 25/21 A3017 RMK A01 T02510214  RH  080%=      5-min Rain = 0
KST2 100513Z 19005KT 25/21 A3018 RMK A01 T02510214  RH  080%=      5-min Rain = 0
KST2 100514Z 18005KT 25/21 A3018 RMK A01 T02510214  RH  080%=      5-min Rain = 0
KST2 100515Z 18005KT 25/21 A3018 RMK A01 T02510214  RH  080%=      5-min Rain = 0
KST2 100516Z 18005KT 25/21 A3018 RMK A01 T02510214  RH  080%=      5-min Rain = 0
KST2 100517Z 18005KT 25/21 A3018 RMK A01 T02510213  RH  080%=      5-min Rain = 0
KST2 100518Z 17006KT 25/21 A3017 RMK A01 T02510213  RH  079%=      5-min Rain = 0
KST2 100519Z 18005KT 25/21 A3017 RMK A01 T02510212  RH  079%=      5-min Rain = 0
KST2 100520Z 17006KT 25/21 A3017 RMK A01 T02510212  RH  079%=      5-min Rain = 0
KST2 100521Z 17006KT 25/21 A3017 RMK A01 T02510213  RH  079%=      5-min Rain = 0
KST2 100522Z 17006KT 25/21 A3017 RMK A01 T02510212  RH  079%=      5-min Rain = 0
KST2 100523Z 17006KT 25/21 A3017 RMK A01 T02510213  RH  079%=      5-min Rain = 0
KST2 100524Z 17007KT 25/21 A3017 RMK A01 T02510213  RH  079%=      5-min Rain = 0
KST2 100525Z 17007KT 25/21 A3017 RMK A01 T02510213  RH  079%=      5-min Rain = 0
KST2 100526Z 18006KT 25/21 A3017 RMK A01 T02510213  RH  079%=      5-min Rain = 0
KST2 100527Z 18006KT 25/21 A3017 RMK A01 T02500212  RH  080%=      5-min Rain = 0
KST2 100528Z 18006KT 25/21 A3017 RMK A01 T02500213  RH  080%=      5-min Rain = 0
KST2 100529Z 18006KT 25/21 A3017 RMK A01 T02500212  RH  080%=      5-min Rain = 0
KST2 100530Z 18006KT 25/21 A3017 RMK A01 T02500213  RH  080%=      5-min Rain = 0
KST2 100531Z 19006KT 25/21 A3017 RMK A01 T02500212  RH  080%=      5-min Rain = 0
KST2 100532Z 19005KT 25/21 A3017 RMK A01 T02500213  RH  080%=      5-min Rain = 0
KST2 100533Z 19006KT 25/21 A3017 RMK A01 T02500213  RH  080%=      5-min Rain = 0
KST2 100534Z 19006KT 25/21 A3017 RMK A01 T02500212  RH  080%=      5-min Rain = 0
KST2 100535Z 18006KT 25/21 A3017 RMK A01 T02500213  RH  080%=      5-min Rain = 0
KST2 100536Z 19006KT 25/21 A3017 RMK A01 T02500213  RH  080%=      5-min Rain = 0
KST2 100537Z 19006KT 25/21 A3017 RMK A01 T02500213  RH  080%=      5-min Rain = 0
KST2 100538Z 19005KT 25/21 A3017 RMK A01 T02500213  RH  080%=      5-min Rain = 0
KST2 100539Z 19005KT 25/21 A3017 RMK A01 T02490213  RH  080%=      5-min Rain = 0
KST2 100540Z 19005KT 25/21 A3017 RMK A01 T02490213  RH  080%=      5-min Rain = 0
KST2 100541Z 18005KT 25/21 A3017 RMK A01 T02490213  RH  080%=      5-min Rain = 0
KST2 100542Z 18005KT 25/21 A3017 RMK A01 T02490213  RH  081%=      5-min Rain = 0
KST2 100543Z 18005KT 25/21 A3017 RMK A01 T02490213  RH  081%=      5-min Rain = 0
KST2 100544Z 18005KT 25/21 A3017 RMK A01 T02490213  RH  080%=      5-min Rain = 0
KST2 100545Z 18005KT 25/21 A3017 RMK A01 T02480213  RH  081%=      5-min Rain = 0
KST2 100546Z 18005KT 25/21 A3017 RMK A01 T02480213  RH  081%=      5-min Rain = 0
KST2 100547Z 18005KT 25/21 A3017 RMK A01 T02490214  RH  081%=      5-min Rain = 0
KST2 100548Z 19006KT 25/21 A3017 RMK A01 T02480213  RH  081%=      5-min Rain = 0
KST2 100549Z 19005KT 25/21 A3017 RMK A01 T02480213  RH  081%=      5-min Rain = 0
KST2 100550Z 19005KT 25/21 A3017 RMK A01 T02470213  RH  081%=      5-min Rain = 0
KST2 100551Z 19005KT 25/21 A3017 RMK A01 T02470213  RH  082%=      5-min Rain = 0
KST2 100552Z 18005KT 25/21 A3017 RMK A01 T02470214  RH  082%=      5-min Rain = 0
KST2 100553Z 18005KT 25/21 A3017 RMK A01 T02470214  RH  082%=      5-min Rain = 0
KST2 100554Z 18006KT 25/21 A3017 RMK A01 T02470214  RH  082%=      5-min Rain = 0
KST2 100555Z 19006KT 25/21 A3017 RMK A01 T02460214  RH  082%=      5-min Rain = 0
KST2 100556Z 19005KT 25/21 A3017 RMK A01 T02460214  RH  082%=      5-min Rain = 0
KST2 100557Z 19005KT 25/22 A3017 RMK A01 T02460215  RH  083%=      5-min Rain = 0
KST2 100558Z 19005KT 25/21 A3017 RMK A01 T02450214  RH  083%=      5-min Rain = 0
KST2 100559Z 19005KT 25/21 A3017 RMK A01 T02450214  RH  083%=      5-min Rain = 0
KST2 100600Z 19004KT 25/22 A3017 RMK A01 T02450215  RH  083%=      5-min Rain = 0
KST2 100601Z 19005KT 25/21 A3017 RMK A01 T02450214  RH  083%=      5-min Rain = 0
KST2 100602Z 18005KT 25/21 A3017 RMK A01 T02450214  RH  083%=      5-min Rain = 0
KST2 100603Z 18005KT 25/22 A3017 RMK A01 T02450215  RH  083%=      5-min Rain = 0
KST2 100604Z 18005KT 24/21 A3017 RMK A01 T02440214  RH  083%=      5-min Rain = 0
KST2 100605Z 19005KT 24/22 A3017 RMK A01 T02440215  RH  084%=      5-min Rain = 0
KST2 100606Z 19005KT 24/22 A3017 RMK A01 T02440215  RH  084%=      5-min Rain = 0
KST2 100607Z 19004KT 24/22 A3017 RMK A01 T02440215  RH  084%=      5-min Rain = 0
KST2 100608Z 19004KT 24/22 A3017 RMK A01 T02430215  RH  084%=      5-min Rain = 0
KST2 100609Z 19004KT 24/22 A3017 RMK A01 T02430215  RH  084%=      5-min Rain = 0
KST2 100610Z 19004KT 24/22 A3017 RMK A01 T02430215  RH  084%=      5-min Rain = 0
KST2 100611Z 19004KT 24/22 A3017 RMK A01 T02430215  RH  084%=      5-min Rain = 0
KST2 100612Z 19004KT 24/22 A3017 RMK A01 T02430215  RH  084%=      5-min Rain = 0
KST2 100613Z 18004KT 24/21 A3017 RMK A01 T02430214  RH  084%=      5-min Rain = 0
KST2 100614Z 18005KT 24/22 A3017 RMK A01 T02430215  RH  084%=      5-min Rain = 0
KST2 100615Z 18005KT 24/22 A3017 RMK A01 T02430215  RH  084%=      5-min Rain = 0
KST2 100616Z 18005KT 24/22 A3017 RMK A01 T02430215  RH  084%=      5-min Rain = 0
KST2 100617Z 18004KT 24/22 A3017 RMK A01 T02430215  RH  084%=      5-min Rain = 0
KST2 100618Z 18005KT 24/21 A3017 RMK A01 T02420214  RH  084%=      5-min Rain = 0
KST2 100619Z 18004KT 24/22 A3017 RMK A01 T02430215  RH  084%=      5-min Rain = 0
KST2 100620Z 18004KT 24/21 A3017 RMK A01 T02420214  RH  084%=      5-min Rain = 0
KST2 100621Z 18004KT 24/21 A3017 RMK A01 T02430214  RH  084%=      5-min Rain = 0
KST2 100622Z 18004KT 24/21 A3017 RMK A01 T02430214  RH  084%=      5-min Rain = 0
KST2 100623Z 18004KT 24/21 A3017 RMK A01 T02430214  RH  084%=      5-min Rain = 0
KST2 100624Z 18004KT 24/21 A3017 RMK A01 T02430214  RH  084%=      5-min Rain = 0
KST2 100625Z 18004KT 24/21 A3017 RMK A01 T02430214  RH  084%=      5-min Rain = 0
KST2 100626Z 18004KT 24/21 A3017 RMK A01 T02430214  RH  084%=      5-min Rain = 0
KST2 100627Z 18004KT 24/21 A3017 RMK A01 T02430214  RH  084%=      5-min Rain = 0
KST2 100628Z 17005KT 24/21 A3017 RMK A01 T02430214  RH  084%=      5-min Rain = 0
KST2 100629Z 17005KT 24/21 A3017 RMK A01 T02430214  RH  083%=      5-min Rain = 0
KST2 100630Z 17005KT 24/21 A3017 RMK A01 T02440214  RH  084%=      5-min Rain = 0
KST2 100631Z 17005KT 24/21 A3017 RMK A01 T02440214  RH  084%=      5-min Rain = 0
KST2 100632Z 17005KT 24/21 A3017 RMK A01 T02430214  RH  084%=      5-min Rain = 0
KST2 100633Z 17004KT 24/21 A3017 RMK A01 T02430214  RH  084%=      5-min Rain = 0
KST2 100634Z 17004KT 24/21 A3017 RMK A01 T02440214  RH  083%=      5-min Rain = 0
KST2 100635Z 17005KT 24/21 A3017 RMK A01 T02440213  RH  083%=      5-min Rain = 0
KST2 100636Z 17005KT 24/21 A3017 RMK A01 T02440213  RH  083%=      5-min Rain = 0
KST2 100637Z 17005KT 24/21 A3017 RMK A01 T02440213  RH  083%=      5-min Rain = 0
KST2 100638Z 17004KT 24/21 A3017 RMK A01 T02440213  RH  083%=      5-min Rain = 0
KST2 100639Z 17004KT 24/21 A3017 RMK A01 T02440213  RH  083%=      5-min Rain = 0
KST2 100640Z 17004KT 24/21 A3017 RMK A01 T02440213  RH  083%=      5-min Rain = 0
KST2 100641Z 17004KT 24/21 A3017 RMK A01 T02440214  RH  083%=      5-min Rain = 0
KST2 100642Z 17003KT 25/21 A3017 RMK A01 T02450214  RH  083%=      5-min Rain = 0
KST2 100643Z 17003KT 24/21 A3017 RMK A01 T02440214  RH  083%=      5-min Rain = 0
KST2 100644Z 17003KT 24/21 A3017 RMK A01 T02440214  RH  083%=      5-min Rain = 0
KST2 100645Z 17004KT 24/21 A3017 RMK A01 T02440214  RH  083%=      5-min Rain = 0
KST2 100646Z 16004KT 24/21 A3017 RMK A01 T02440214  RH  083%=      5-min Rain = 0
KST2 100647Z 16003KT 24/21 A3017 RMK A01 T02440214  RH  083%=      5-min Rain = 0
KST2 100648Z 16003KT 24/21 A3017 RMK A01 T02440214  RH  083%=      5-min Rain = 0
KST2 100649Z 16003KT 24/21 A3017 RMK A01 T02440214  RH  083%=      5-min Rain = 0
KST2 100650Z 16004KT 24/21 A3017 RMK A01 T02440214  RH  083%=      5-min Rain = 0
KST2 100651Z 16004KT 24/21 A3017 RMK A01 T02440214  RH  083%=      5-min Rain = 0
KST2 100652Z 16004KT 24/22 A3017 RMK A01 T02440215  RH  084%=      5-min Rain = 0
KST2 100653Z 16005KT 24/22 A3017 RMK A01 T02440215  RH  084%=      5-min Rain = 0
KST2 100654Z 16005KT 24/22 A3017 RMK A01 T02440215  RH  084%=      5-min Rain = 0
KST2 100655Z 17005KT 24/22 A3017 RMK A01 T02440215  RH  084%=      5-min Rain = 0
KST2 100656Z 17005KT 24/22 A3017 RMK A01 T02440215  RH  084%=      5-min Rain = 0
KST2 100657Z 17005KT 24/22 A3017 RMK A01 T02440215  RH  083%=      5-min Rain = 0
KST2 100658Z 18005KT 24/21 A3017 RMK A01 T02440214  RH  083%=      5-min Rain = 0
KST2 100659Z 17005KT 24/21 A3017 RMK A01 T02440214  RH  083%=      5-min Rain = 0
KST2 100700Z 17005KT 24/21 A3017 RMK A01 T02440214  RH  083%=      5-min Rain = 0
KST2 100701Z 17004KT 24/21 A3017 RMK A01 T02440214  RH  083%=      5-min Rain = 0
KST2 100702Z 17004KT 24/21 A3017 RMK A01 T02440214  RH  083%=      5-min Rain = 0
KST2 100703Z 16004KT 24/21 A3017 RMK A01 T02440214  RH  083%=      5-min Rain = 0
KST2 100704Z 16003KT 24/21 A3017 RMK A01 T02440214  RH  083%=      5-min Rain = 0
KST2 100705Z 16003KT 24/21 A3017 RMK A01 T02440214  RH  083%=      5-min Rain = 0
KST2 100706Z 17004KT 24/21 A3017 RMK A01 T02440214  RH  084%=      5-min Rain = 0
KST2 100707Z 17004KT 24/21 A3017 RMK A01 T02440214  RH  083%=      5-min Rain = 0
KST2 100708Z 17004KT 24/21 A3017 RMK A01 T02440213  RH  083%=      5-min Rain = 0
KST2 100709Z 17004KT 24/21 A3017 RMK A01 T02440213  RH  083%=      5-min Rain = 0
KST2 100710Z 18003KT 24/21 A3017 RMK A01 T02440213  RH  083%=      5-min Rain = 0
KST2 100711Z 17003KT 24/21 A3017 RMK A01 T02440214  RH  083%=      5-min Rain = 0
KST2 100712Z 17003KT 24/21 A3017 RMK A01 T02440214  RH  083%=      5-min Rain = 0
KST2 100713Z 17003KT 24/21 A3017 RMK A01 T02440213  RH  083%=      5-min Rain = 0
KST2 100714Z 17003KT 24/21 A3017 RMK A01 T02440213  RH  083%=      5-min Rain = 0
KST2 100715Z 17003KT 24/21 A3017 RMK A01 T02440213  RH  083%=      5-min Rain = 0
KST2 100716Z 17004KT 24/21 A3017 RMK A01 T02440214  RH  083%=      5-min Rain = 0
KST2 100717Z 18004KT 24/21 A3017 RMK A01 T02440213  RH  083%=      5-min Rain = 0
KST2 100718Z 18005KT 24/21 A3017 RMK A01 T02430213  RH  083%=      5-min Rain = 0
KST2 100719Z 18004KT 24/21 A3017 RMK A01 T02440213  RH  083%=      5-min Rain = 0
KST2 100720Z 17003KT 24/21 A3017 RMK A01 T02430213  RH  083%=      5-min Rain = 0
KST2 100721Z 17003KT 24/21 A3017 RMK A01 T02430213  RH  083%=      5-min Rain = 0
KST2 100722Z 17003KT 24/21 A3017 RMK A01 T02430213  RH  083%=      5-min Rain = 0
KST2 100723Z 19004KT 24/21 A3017 RMK A01 T02430213  RH  083%=      5-min Rain = 0
KST2 100724Z 18006KT 24/21 A3017 RMK A01 T02440213  RH  083%=      5-min Rain = 0
KST2 100725Z 18005KT 24/21 A3017 RMK A01 T02440213  RH  083%=      5-min Rain = 0
KST2 100726Z 18004KT 24/21 A3017 RMK A01 T02440213  RH  083%=      5-min Rain = 0
KST2 100727Z 18004KT 24/21 A3017 RMK A01 T02440213  RH  083%=      5-min Rain = 0
KST2 100728Z 19006KT 25/21 A3017 RMK A01 T02450213  RH  083%=      5-min Rain = 0
KST2 100729Z 19006KT 24/21 A3017 RMK A01 T02440213  RH  083%=      5-min Rain = 0
KST2 100730Z 18004KT 25/21 A3017 RMK A01 T02450214  RH  083%=      5-min Rain = 0
KST2 100731Z 18005KT 24/21 A3017 RMK A01 T02440214  RH  083%=      5-min Rain = 0
KST2 100732Z 19006KT 24/21 A3017 RMK A01 T02440214  RH  083%=      5-min Rain = 0
KST2 100733Z 18007KT 24/21 A3017 RMK A01 T02440214  RH  083%=      5-min Rain = 0
KST2 100734Z 18006KT 24/21 A3017 RMK A01 T02430214  RH  084%=      5-min Rain = 0
KST2 100735Z 18005KT 24/22 A3017 RMK A01 T02430215  RH  084%=      5-min Rain = 0
KST2 100736Z 18005KT 24/21 A3017 RMK A01 T02430214  RH  084%=      5-min Rain = 0
KST2 100737Z 18005KT 24/21 A3017 RMK A01 T02420214  RH  084%=      5-min Rain = 0
KST2 100738Z 18006KT 24/22 A3017 RMK A01 T02420215  RH  085%=      5-min Rain = 0
KST2 100739Z 18007KT 24/22 A3017 RMK A01 T02420215  RH  085%=      5-min Rain = 0
KST2 100740Z 18005KT 24/22 A3017 RMK A01 T02420215  RH  085%=      5-min Rain = 0
KST2 100741Z 18004KT 24/22 A3017 RMK A01 T02420215  RH  085%=      5-min Rain = 0
KST2 100742Z 18005KT 24/22 A3017 RMK A01 T02420215  RH  085%=      5-min Rain = 0
KST2 100743Z 18005KT 24/22 A3017 RMK A01 T02420215  RH  085%=      5-min Rain = 0
KST2 100744Z 18005KT 24/22 A3017 RMK A01 T02420216  RH  085%=      5-min Rain = 0
KST2 100745Z 17004KT 24/22 A3017 RMK A01 T02420215  RH  085%=      5-min Rain = 0
KST2 100746Z 17004KT 24/22 A3017 RMK A01 T02420215  RH  085%=      5-min Rain = 0
KST2 100747Z 18005KT 24/22 A3017 RMK A01 T02420215  RH  085%=      5-min Rain = 0
KST2 100748Z 18005KT 24/22 A3017 RMK A01 T02410215  RH  085%=      5-min Rain = 0
KST2 100749Z 18005KT 24/22 A3017 RMK A01 T02420215  RH  085%=      5-min Rain = 0
KST2 100750Z 18006KT 24/22 A3017 RMK A01 T02420215  RH  085%=      5-min Rain = 0
KST2 100751Z 18005KT 24/22 A3017 RMK A01 T02410215  RH  085%=      5-min Rain = 0
KST2 100752Z 18004KT 24/22 A3017 RMK A01 T02410215  RH  085%=      5-min Rain = 0
KST2 100753Z 18005KT 24/22 A3017 RMK A01 T02410215  RH  085%=      5-min Rain = 0
KST2 100754Z 18005KT 24/22 A3017 RMK A01 T02410215  RH  085%=      5-min Rain = 0
KST2 100755Z 19005KT 24/22 A3017 RMK A01 T02410216  RH  085%=      5-min Rain = 0
KST2 100756Z 19005KT 24/22 A3017 RMK A01 T02410215  RH  085%=      5-min Rain = 0
KST2 100757Z 18005KT 24/22 A3017 RMK A01 T02410215  RH  085%=      5-min Rain = 0
KST2 100758Z 19005KT 24/22 A3017 RMK A01 T02410215  RH  086%=      5-min Rain = 0
KST2 100759Z 19005KT 24/22 A3017 RMK A01 T02410215  RH  085%=      5-min Rain = 0
KST2 100800Z 18005KT 24/22 A3017 RMK A01 T02410215  RH  086%=      5-min Rain = 0
KST2 100801Z 18005KT 24/22 A3017 RMK A01 T02410215  RH  086%=      5-min Rain = 0
KST2 100802Z 18004KT 24/22 A3017 RMK A01 T02410215  RH  086%=      5-min Rain = 0
KST2 100803Z 18006KT 24/21 A3017 RMK A01 T02410214  RH  085%=      5-min Rain = 0
KST2 100804Z 19005KT 24/21 A3017 RMK A01 T02410214  RH  085%=      5-min Rain = 0
KST2 100805Z 19005KT 24/21 A3017 RMK A01 T02400214  RH  085%=      5-min Rain = 0
KST2 100806Z 19005KT 24/21 A3017 RMK A01 T02400214  RH  086%=      5-min Rain = 0
KST2 100807Z 19005KT 24/22 A3017 RMK A01 T02400215  RH  085%=      5-min Rain = 0
KST2 100808Z 19005KT 24/21 A3017 RMK A01 T02400214  RH  086%=      5-min Rain = 0
KST2 100809Z 19005KT 24/21 A3017 RMK A01 T02400214  RH  085%=      5-min Rain = 0
KST2 100810Z 19006KT 24/21 A3017 RMK A01 T02400214  RH  086%=      5-min Rain = 0
KST2 100811Z 20005KT 24/21 A3017 RMK A01 T02400214  RH  085%=      5-min Rain = 0
KST2 100812Z 20005KT 24/21 A3017 RMK A01 T02400214  RH  086%=      5-min Rain = 0
KST2 100813Z 20005KT 24/21 A3017 RMK A01 T02400214  RH  085%=      5-min Rain = 0
KST2 100814Z 21005KT 24/21 A3017 RMK A01 T02400214  RH  085%=      5-min Rain = 0
KST2 100815Z 21004KT 24/21 A3017 RMK A01 T02400214  RH  085%=      5-min Rain = 0
KST2 100816Z 20005KT 24/21 A3017 RMK A01 T02400214  RH  086%=      5-min Rain = 0
KST2 100817Z 20005KT 24/21 A3017 RMK A01 T02400214  RH  085%=      5-min Rain = 0
KST2 100818Z 20006KT 24/21 A3017 RMK A01 T02400214  RH  086%=      5-min Rain = 0
KST2 100819Z 20006KT 24/21 A3017 RMK A01 T02400214  RH  085%=      5-min Rain = 0
KST2 100820Z 19005KT 24/21 A3017 RMK A01 T02390214  RH  086%=      5-min Rain = 0
KST2 100821Z 20006KT 24/21 A3017 RMK A01 T02390214  RH  086%=      5-min Rain = 0
KST2 100822Z 20006KT 24/21 A3017 RMK A01 T02400214  RH  086%=      5-min Rain = 0
KST2 100823Z 20005KT 24/21 A3017 RMK A01 T02390214  RH  086%=      5-min Rain = 0
KST2 100824Z 20005KT 24/21 A3017 RMK A01 T02390214  RH  086%=      5-min Rain = 0
KST2 100825Z 19005KT 24/21 A3017 RMK A01 T02390214  RH  086%=      5-min Rain = 0
KST2 100826Z 19005KT 24/21 A3017 RMK A01 T02390214  RH  086%=      5-min Rain = 0
KST2 100827Z 19005KT 24/21 A3017 RMK A01 T02390214  RH  086%=      5-min Rain = 0
KST2 100828Z 19004KT 24/21 A3017 RMK A01 T02390214  RH  086%=      5-min Rain = 0
KST2 100829Z 19004KT 24/21 A3017 RMK A01 T02390214  RH  086%=      5-min Rain = 0
KST2 100830Z 19005KT 24/21 A3017 RMK A01 T02390214  RH  086%=      5-min Rain = 0
KST2 100831Z 19005KT 24/21 A3017 RMK A01 T02390214  RH  086%=      5-min Rain = 0
KST2 100832Z 19005KT 24/21 A3017 RMK A01 T02390214  RH  086%=      5-min Rain = 0
KST2 100833Z 19004KT 24/21 A3017 RMK A01 T02390214  RH  086%=      5-min Rain = 0
KST2 100834Z 20004KT 24/21 A3017 RMK A01 T02390214  RH  086%=      5-min Rain = 0
KST2 100835Z 20004KT 24/21 A3017 RMK A01 T02390214  RH  086%=      5-min Rain = 0
KST2 100836Z 19004KT 24/21 A3017 RMK A01 T02390214  RH  086%=      5-min Rain = 0
KST2 100837Z 20004KT 24/21 A3017 RMK A01 T02390214  RH  086%=      5-min Rain = 0
KST2 100838Z 20004KT 24/21 A3017 RMK A01 T02390214  RH  086%=      5-min Rain = 0
KST2 100839Z 20003KT 24/21 A3017 RMK A01 T02390214  RH  086%=      5-min Rain = 0
KST2 100840Z 21003KT 24/21 A3017 RMK A01 T02390214  RH  086%=      5-min Rain = 0
KST2 100841Z 21004KT 24/21 A3017 RMK A01 T02390214  RH  086%=      5-min Rain = 0
KST2 100842Z 21004KT 24/21 A3017 RMK A01 T02390214  RH  086%=      5-min Rain = 0
KST2 100843Z 20004KT 24/21 A3017 RMK A01 T02390214  RH  086%=      5-min Rain = 0
KST2 100844Z 20004KT 24/21 A3017 RMK A01 T02390214  RH  086%=      5-min Rain = 0
KST2 100845Z 19004KT 24/21 A3017 RMK A01 T02390214  RH  086%=      5-min Rain = 0
KST2 100846Z 19004KT 24/21 A3017 RMK A01 T02390214  RH  086%=      5-min Rain = 0
KST2 100847Z 19005KT 24/21 A3017 RMK A01 T02390214  RH  086%=      5-min Rain = 0
KST2 100848Z 19005KT 24/21 A3017 RMK A01 T02390214  RH  086%=      5-min Rain = 0
KST2 100849Z 19004KT 24/21 A3016 RMK A01 T02390214  RH  086%=      5-min Rain = 0
KST2 100850Z 20004KT 24/21 A3016 RMK A01 T02390214  RH  086%=      5-min Rain = 0
KST2 100851Z 20005KT 24/21 A3016 RMK A01 T02390214  RH  086%=      5-min Rain = 0
KST2 100852Z 21004KT 24/21 A3016 RMK A01 T02390214  RH  086%=      5-min Rain = 0
KST2 100853Z 21004KT 24/21 A3016 RMK A01 T02390213  RH  086%=      5-min Rain = 0
KST2 100854Z 21004KT 24/21 A3016 RMK A01 T02390214  RH  086%=      5-min Rain = 0
KST2 100855Z 21005KT 24/21 A3016 RMK A01 T02390214  RH  086%=      5-min Rain = 0
KST2 100856Z 21004KT 24/21 A3016 RMK A01 T02390214  RH  086%=      5-min Rain = 0
KST2 100857Z 21005KT 24/21 A3016 RMK A01 T02380214  RH  086%=      5-min Rain = 0
KST2 100858Z 21004KT 24/21 A3016 RMK A01 T02380214  RH  086%=      5-min Rain = 0
KST2 100859Z 20004KT 24/21 A3016 RMK A01 T02380214  RH  086%=      5-min Rain = 0
KST2 100900Z 20004KT 24/21 A3016 RMK A01 T02380214  RH  086%=      5-min Rain = 0
KST2 100901Z 20004KT 24/21 A3016 RMK A01 T02380214  RH  086%=      5-min Rain = 0
KST2 100902Z 20004KT 24/21 A3016 RMK A01 T02380214  RH  086%=      5-min Rain = 0
KST2 100903Z 20005KT 24/21 A3016 RMK A01 T02380214  RH  086%=      5-min Rain = 0
KST2 100904Z 20005KT 24/21 A3016 RMK A01 T02380214  RH  086%=      5-min Rain = 0
KST2 100905Z 19004KT 24/21 A3016 RMK A01 T02380214  RH  086%=      5-min Rain = 0
KST2 100906Z 19004KT 24/21 A3016 RMK A01 T02380214  RH  086%=      5-min Rain = 0
KST2 100907Z 19004KT 24/21 A3016 RMK A01 T02390214  RH  086%=      5-min Rain = 0
KST2 100908Z 19003KT 24/21 A3016 RMK A01 T02380214  RH  086%=      5-min Rain = 0
KST2 100909Z 19005KT 24/21 A3016 RMK A01 T02390214  RH  086%=      5-min Rain = 0
KST2 100910Z 19004KT 24/21 A3016 RMK A01 T02390214  RH  086%=      5-min Rain = 0
KST2 100911Z 19004KT 24/22 A3016 RMK A01 T02390215  RH  086%=      5-min Rain = 0
KST2 100912Z 19004KT 24/22 A3016 RMK A01 T02390215  RH  086%=      5-min Rain = 0
KST2 100913Z 19005KT 24/21 A3016 RMK A01 T02390214  RH  086%=      5-min Rain = 0
KST2 100914Z 18004KT 24/22 A3016 RMK A01 T02390215  RH  086%=      5-min Rain = 0
KST2 100915Z 19004KT 24/21 A3016 RMK A01 T02380214  RH  086%=      5-min Rain = 0
KST2 100916Z 19004KT 24/22 A3016 RMK A01 T02380215  RH  087%=      5-min Rain = 0
KST2 100917Z 19004KT 24/22 A3016 RMK A01 T02380215  RH  087%=      5-min Rain = 0
KST2 100918Z 18004KT 24/22 A3016 RMK A01 T02380215  RH  087%=      5-min Rain = 0
KST2 100919Z 19004KT 24/21 A3016 RMK A01 T02380214  RH  086%=      5-min Rain = 0
KST2 100920Z 19004KT 24/22 A3016 RMK A01 T02380215  RH  087%=      5-min Rain = 0
KST2 100921Z 19004KT 24/21 A3016 RMK A01 T02380214  RH  086%=      5-min Rain = 0
KST2 100922Z 19003KT 24/21 A3016 RMK A01 T02380214  RH  086%=      5-min Rain = 0
KST2 100923Z 19004KT 24/21 A3016 RMK A01 T02380214  RH  086%=      5-min Rain = 0
KST2 100924Z 19004KT 24/21 A3016 RMK A01 T02380214  RH  086%=      5-min Rain = 0
KST2 100925Z 20003KT 24/21 A3016 RMK A01 T02390214  RH  086%=      5-min Rain = 0
KST2 100926Z 19003KT 24/21 A3016 RMK A01 T02380214  RH  086%=      5-min Rain = 0
KST2 100927Z 19002KT 24/21 A3016 RMK A01 T02380214  RH  086%=      5-min Rain = 0
KST2 100928Z 19003KT 24/21 A3016 RMK A01 T02380214  RH  086%=      5-min Rain = 0
KST2 100929Z 19003KT 24/21 A3016 RMK A01 T02380214  RH  086%=      5-min Rain = 0
KST2 100930Z 19003KT 24/21 A3017 RMK A01 T02380214  RH  086%=      5-min Rain = 0
KST2 100931Z 19004KT 24/21 A3017 RMK A01 T02380214  RH  086%=      5-min Rain = 0
KST2 100932Z 19004KT 24/21 A3017 RMK A01 T02380214  RH  086%=      5-min Rain = 0
KST2 100933Z 20003KT 24/21 A3017 RMK A01 T02380214  RH  086%=      5-min Rain = 0
KST2 100934Z 19003KT 24/21 A3017 RMK A01 T02380214  RH  086%=      5-min Rain = 0
KST2 100935Z 19003KT 24/21 A3017 RMK A01 T02380214  RH  086%=      5-min Rain = 0
KST2 100936Z 20003KT 24/21 A3016 RMK A01 T02380214  RH  086%=      5-min Rain = 0
KST2 100937Z 20003KT 24/22 A3017 RMK A01 T02390215  RH  086%=      5-min Rain = 0
KST2 100938Z 20004KT 24/22 A3017 RMK A01 T02390215  RH  086%=      5-min Rain = 0
KST2 100939Z 20004KT 24/21 A3017 RMK A01 T02380214  RH  086%=      5-min Rain = 0
KST2 100940Z 20004KT 24/21 A3017 RMK A01 T02380214  RH  086%=      5-min Rain = 0
KST2 100941Z 21003KT 24/22 A3016 RMK A01 T02390215  RH  087%=      5-min Rain = 0
KST2 100942Z 20003KT 24/22 A3016 RMK A01 T02380215  RH  087%=      5-min Rain = 0
KST2 100943Z 21003KT 24/22 A3016 RMK A01 T02390215  RH  087%=      5-min Rain = 0
KST2 100944Z 20002KT 24/22 A3016 RMK A01 T02390215  RH  086%=      5-min Rain = 0
KST2 100945Z 21002KT 24/22 A3016 RMK A01 T02380215  RH  087%=      5-min Rain = 0
KST2 100946Z 21002KT 24/22 A3017 RMK A01 T02380215  RH  087%=      5-min Rain = 0
KST2 100947Z 20002KT 24/21 A3017 RMK A01 T02380214  RH  087%=      5-min Rain = 0
KST2 100948Z 21002KT 24/22 A3017 RMK A01 T02390215  RH  087%=      5-min Rain = 0
KST2 100949Z 20002KT 24/22 A3017 RMK A01 T02380215  RH  087%=      5-min Rain = 0
KST2 100950Z 21002KT 24/22 A3017 RMK A01 T02380215  RH  087%=      5-min Rain = 0
KST2 100951Z 20002KT 24/22 A3017 RMK A01 T02380215  RH  087%=      5-min Rain = 0
KST2 100952Z 19003KT 24/22 A3017 RMK A01 T02380215  RH  087%=      5-min Rain = 0
KST2 100953Z 19003KT 24/22 A3017 RMK A01 T02380215  RH  087%=      5-min Rain = 0
KST2 100954Z 19003KT 24/22 A3017 RMK A01 T02380215  RH  087%=      5-min Rain = 0
KST2 100955Z 18003KT 24/22 A3017 RMK A01 T02380215  RH  087%=      5-min Rain = 0
KST2 100956Z 18003KT 24/22 A3017 RMK A01 T02390215  RH  087%=      5-min Rain = 0
KST2 100957Z 18003KT 24/22 A3017 RMK A01 T02390215  RH  086%=      5-min Rain = 0
KST2 100958Z 18003KT 24/22 A3017 RMK A01 T02390215  RH  087%=      5-min Rain = 0
KST2 100959Z 19003KT 24/22 A3017 RMK A01 T02390215  RH  087%=      5-min Rain = 0
KST2 101000Z 19003KT 24/22 A3017 RMK A01 T02390215  RH  087%=      5-min Rain = 0
KST2 101001Z 19003KT 24/22 A3017 RMK A01 T02380215  RH  087%=      5-min Rain = 0
KST2 101002Z 20003KT 24/22 A3017 RMK A01 T02380215  RH  087%=      5-min Rain = 0
KST2 101003Z 19003KT 24/22 A3017 RMK A01 T02380215  RH  087%=      5-min Rain = 0
KST2 101004Z 19003KT 24/22 A3017 RMK A01 T02380215  RH  087%=      5-min Rain = 0
KST2 101005Z 19003KT 24/22 A3017 RMK A01 T02380215  RH  087%=      5-min Rain = 0
KST2 101006Z 19003KT 24/22 A3017 RMK A01 T02380216  RH  087%=      5-min Rain = 0
KST2 101007Z 19003KT 24/22 A3017 RMK A01 T02380215  RH  087%=      5-min Rain = 0
KST2 101008Z 19003KT 24/22 A3017 RMK A01 T02380215  RH  087%=      5-min Rain = 0
KST2 101009Z 20003KT 24/22 A3017 RMK A01 T02380215  RH  087%=      5-min Rain = 0
KST2 101010Z 20003KT 24/22 A3017 RMK A01 T02380216  RH  087%=      5-min Rain = 0
KST2 101011Z 20003KT 24/22 A3017 RMK A01 T02370215  RH  087%=      5-min Rain = 0
KST2 101012Z 20002KT 24/22 A3017 RMK A01 T02370215  RH  087%=      5-min Rain = 0
KST2 101013Z 20002KT 24/22 A3017 RMK A01 T02380216  RH  088%=      5-min Rain = 0
KST2 101014Z 19003KT 24/22 A3017 RMK A01 T02370216  RH  088%=      5-min Rain = 0
KST2 101015Z 19003KT 24/22 A3017 RMK A01 T02370216  RH  088%=      5-min Rain = 0
KST2 101016Z 19004KT 24/22 A3017 RMK A01 T02370216  RH  088%=      5-min Rain = 0
KST2 101017Z 19004KT 24/22 A3017 RMK A01 T02370216  RH  088%=      5-min Rain = 0
KST2 101018Z 19003KT 24/22 A3017 RMK A01 T02370216  RH  088%=      5-min Rain = 0
KST2 101019Z 19003KT 24/22 A3017 RMK A01 T02370216  RH  088%=      5-min Rain = 0
KST2 101020Z 19004KT 24/22 A3017 RMK A01 T02360216  RH  088%=      5-min Rain = 0
KST2 101021Z 19004KT 24/22 A3017 RMK A01 T02360216  RH  088%=      5-min Rain = 0
KST2 101022Z 19003KT 24/22 A3017 RMK A01 T02360216  RH  088%=      5-min Rain = 0
KST2 101023Z 19003KT 24/22 A3017 RMK A01 T02360216  RH  088%=      5-min Rain = 0
KST2 101024Z 18003KT 24/22 A3017 RMK A01 T02360216  RH  088%=      5-min Rain = 0
KST2 101025Z 19003KT 24/22 A3017 RMK A01 T02360216  RH  089%=      5-min Rain = 0
KST2 101026Z 19003KT 24/22 A3017 RMK A01 T02360216  RH  089%=      5-min Rain = 0
KST2 101027Z 18004KT 24/22 A3017 RMK A01 T02360216  RH  088%=      5-min Rain = 0
KST2 101028Z 18004KT 24/22 A3017 RMK A01 T02360216  RH  088%=      5-min Rain = 0
KST2 101029Z 18004KT 24/22 A3017 RMK A01 T02360216  RH  089%=      5-min Rain = 0
KST2 101030Z 18003KT 24/22 A3017 RMK A01 T02350216  RH  089%=      5-min Rain = 0
KST2 101031Z 18003KT 24/22 A3017 RMK A01 T02350216  RH  089%=      5-min Rain = 0
KST2 101032Z 18004KT 24/22 A3017 RMK A01 T02350216  RH  089%=      5-min Rain = 0
KST2 101033Z 18004KT 24/22 A3017 RMK A01 T02350216  RH  089%=      5-min Rain = 0
KST2 101034Z 18003KT 24/22 A3017 RMK A01 T02350216  RH  089%=      5-min Rain = 0
KST2 101035Z 18003KT 24/22 A3017 RMK A01 T02350215  RH  089%=      5-min Rain = 0
KST2 101036Z 19003KT 24/22 A3017 RMK A01 T02350215  RH  089%=      5-min Rain = 0
KST2 101037Z 19004KT 23/22 A3017 RMK A01 T02340215  RH  089%=      5-min Rain = 0
KST2 101038Z 18003KT 23/22 A3017 RMK A01 T02340215  RH  089%=      5-min Rain = 0
KST2 101039Z 19004KT 23/22 A3017 RMK A01 T02340215  RH  089%=      5-min Rain = 0
KST2 101040Z 19004KT 23/22 A3017 RMK A01 T02340215  RH  089%=      5-min Rain = 0
KST2 101041Z 18005KT 23/22 A3017 RMK A01 T02340215  RH  089%=      5-min Rain = 0
KST2 101042Z 18005KT 23/22 A3017 RMK A01 T02330215  RH  089%=      5-min Rain = 0
KST2 101043Z 19005KT 23/22 A3017 RMK A01 T02330215  RH  089%=      5-min Rain = 0
KST2 101044Z 19005KT 23/22 A3017 RMK A01 T02330215  RH  089%=      5-min Rain = 0
KST2 101045Z 18005KT 23/22 A3017 RMK A01 T02330215  RH  089%=      5-min Rain = 0
KST2 101046Z 18005KT 23/21 A3017 RMK A01 T02330214  RH  089%=      5-min Rain = 0
KST2 101047Z 18005KT 23/22 A3017 RMK A01 T02330215  RH  089%=      5-min Rain = 0
KST2 101048Z 18005KT 23/21 A3017 RMK A01 T02320214  RH  090%=      5-min Rain = 0
KST2 101049Z 18005KT 23/22 A3017 RMK A01 T02330215  RH  090%=      5-min Rain = 0
KST2 101050Z 18004KT 23/21 A3017 RMK A01 T02320214  RH  090%=      5-min Rain = 0
KST2 101051Z 18005KT 23/22 A3017 RMK A01 T02330215  RH  090%=      5-min Rain = 0
KST2 101052Z 18005KT 23/22 A3018 RMK A01 T02320215  RH  090%=      5-min Rain = 0
KST2 101053Z 18005KT 23/22 A3018 RMK A01 T02320215  RH  090%=      5-min Rain = 0
KST2 101054Z 18004KT 23/21 A3018 RMK A01 T02320214  RH  090%=      5-min Rain = 0
KST2 101055Z 18004KT 23/22 A3018 RMK A01 T02320215  RH  090%=      5-min Rain = 0
KST2 101056Z 18004KT 23/21 A3018 RMK A01 T02310214  RH  090%=      5-min Rain = 0
KST2 101057Z 18005KT 23/22 A3018 RMK A01 T02310215  RH  090%=      5-min Rain = 0
KST2 101058Z 18004KT 23/21 A3018 RMK A01 T02310214  RH  090%=      5-min Rain = 0
KST2 101059Z 19004KT 23/21 A3018 RMK A01 T02310214  RH  090%=      5-min Rain = 0
KST2 101100Z 19004KT 23/22 A3018 RMK A01 T02310215  RH  090%=      5-min Rain = 0
KST2 101101Z 19004KT 23/21 A3018 RMK A01 T02310214  RH  090%=      5-min Rain = 0
KST2 101102Z 19004KT 23/22 A3018 RMK A01 T02310215  RH  091%=      5-min Rain = 0
KST2 101103Z 19004KT 23/22 A3018 RMK A01 T02300215  RH  091%=      5-min Rain = 0
KST2 101104Z 19004KT 23/22 A3018 RMK A01 T02300215  RH  091%=      5-min Rain = 0
KST2 101105Z 18004KT 23/21 A3018 RMK A01 T02300214  RH  091%=      5-min Rain = 0
KST2 101106Z 18004KT 23/21 A3018 RMK A01 T02300214  RH  091%=      5-min Rain = 0
KST2 101107Z 18004KT 23/21 A3018 RMK A01 T02300214  RH  091%=      5-min Rain = 0
KST2 101108Z 18004KT 23/22 A3018 RMK A01 T02300215  RH  091%=      5-min Rain = 0
KST2 101109Z 18004KT 23/21 A3018 RMK A01 T02300214  RH  091%=      5-min Rain = 0
KST2 101110Z 18003KT 23/21 A3018 RMK A01 T02300214  RH  091%=      5-min Rain = 0
KST2 101111Z 18003KT 23/21 A3018 RMK A01 T02300214  RH  091%=      5-min Rain = 0
KST2 101112Z 18004KT 23/21 A3018 RMK A01 T02300214  RH  091%=      5-min Rain = 0
KST2 101113Z 18004KT 23/21 A3018 RMK A01 T02300214  RH  091%=      5-min Rain = 0
KST2 101114Z 18003KT 23/21 A3018 RMK A01 T02300214  RH  091%=      5-min Rain = 0
KST2 101115Z 18003KT 23/21 A3018 RMK A01 T02300214  RH  091%=      5-min Rain = 0
KST2 101116Z 18004KT 23/21 A3018 RMK A01 T02300214  RH  091%=      5-min Rain = 0
KST2 101117Z 19004KT 23/21 A3018 RMK A01 T02290214  RH  091%=      5-min Rain = 0
KST2 101118Z 19004KT 23/21 A3018 RMK A01 T02290214  RH  091%=      5-min Rain = 0
KST2 101119Z 19004KT 23/21 A3018 RMK A01 T02290213  RH  091%=      5-min Rain = 0
KST2 101120Z 19004KT 23/21 A3018 RMK A01 T02290214  RH  091%=      5-min Rain = 0
KST2 101121Z 20004KT 23/21 A3018 RMK A01 T02280213  RH  091%=      5-min Rain = 0
KST2 101122Z 19004KT 23/21 A3018 RMK A01 T02280213  RH  091%=      5-min Rain = 0
KST2 101123Z 19004KT 23/21 A3018 RMK A01 T02280213  RH  091%=      5-min Rain = 0
KST2 101124Z 19003KT 23/21 A3018 RMK A01 T02280214  RH  092%=      5-min Rain = 0
KST2 101125Z 19004KT 23/21 A3018 RMK A01 T02270213  RH  091%=      5-min Rain = 0
KST2 101126Z 19004KT 23/21 A3018 RMK A01 T02270213  RH  092%=      5-min Rain = 0
KST2 101127Z 18004KT 23/21 A3018 RMK A01 T02270213  RH  092%=      5-min Rain = 0
KST2 101128Z 18004KT 23/21 A3018 RMK A01 T02270213  RH  092%=      5-min Rain = 0
KST2 101129Z 18005KT 23/21 A3018 RMK A01 T02270213  RH  091%=      5-min Rain = 0
KST2 101130Z 19005KT 23/21 A3018 RMK A01 T02270213  RH  092%=      5-min Rain = 0
KST2 101131Z 19005KT 23/21 A3018 RMK A01 T02270212  RH  092%=      5-min Rain = 0
KST2 101132Z 19005KT 23/21 A3018 RMK A01 T02270213  RH  092%=      5-min Rain = 0
KST2 101133Z 19004KT 23/21 A3018 RMK A01 T02270213  RH  092%=      5-min Rain = 0
KST2 101134Z 19004KT 23/21 A3018 RMK A01 T02260212  RH  092%=      5-min Rain = 0
KST2 101135Z 19004KT 23/21 A3018 RMK A01 T02270213  RH  092%=      5-min Rain = 0
KST2 101136Z 20004KT 23/21 A3018 RMK A01 T02260212  RH  092%=      5-min Rain = 0
KST2 101137Z 20004KT 23/21 A3018 RMK A01 T02260212  RH  092%=      5-min Rain = 0
KST2 101138Z 19004KT 23/21 A3018 RMK A01 T02260212  RH  092%=      5-min Rain = 0
KST2 101139Z 19004KT 23/21 A3019 RMK A01 T02260212  RH  092%=      5-min Rain = 0
KST2 101140Z 19005KT 23/21 A3019 RMK A01 T02260212  RH  092%=      5-min Rain = 0
KST2 101141Z 19005KT 23/21 A3019 RMK A01 T02260212  RH  092%=      5-min Rain = 0
KST2 101142Z 19005KT 23/21 A3019 RMK A01 T02260213  RH  092%=      5-min Rain = 0
KST2 101143Z 19005KT 23/21 A3019 RMK A01 T02250212  RH  092%=      5-min Rain = 0
KST2 101144Z 20004KT 23/21 A3019 RMK A01 T02260212  RH  092%=      5-min Rain = 0
KST2 101145Z 20004KT 23/21 A3019 RMK A01 T02250212  RH  092%=      5-min Rain = 0
KST2 101146Z 20004KT 23/21 A3019 RMK A01 T02250212  RH  092%=      5-min Rain = 0
KST2 101147Z 20004KT 23/21 A3019 RMK A01 T02250212  RH  092%=      5-min Rain = 0
KST2 101148Z 21004KT 23/21 A3019 RMK A01 T02250212  RH  092%=      5-min Rain = 0
KST2 101149Z 21004KT 23/21 A3019 RMK A01 T02250212  RH  092%=      5-min Rain = 0
KST2 101150Z 21003KT 23/21 A3019 RMK A01 T02250212  RH  092%=      5-min Rain = 0
KST2 101151Z 21004KT 23/21 A3019 RMK A01 T02250212  RH  092%=      5-min Rain = 0
KST2 101152Z 21004KT 23/21 A3019 RMK A01 T02250212  RH  092%=      5-min Rain = 0
KST2 101153Z 21004KT 23/21 A3019 RMK A01 T02250212  RH  092%=      5-min Rain = 0
KST2 101154Z 20004KT 23/21 A3019 RMK A01 T02250212  RH  092%=      5-min Rain = 0
KST2 101155Z 20004KT 23/21 A3019 RMK A01 T02250212  RH  092%=      5-min Rain = 0
KST2 101156Z 20004KT 23/21 A3019 RMK A01 T02250212  RH  092%=      5-min Rain = 0
KST2 101157Z 20004KT 23/21 A3019 RMK A01 T02250212  RH  092%=      5-min Rain = 0
KST2 101158Z 20004KT 23/21 A3019 RMK A01 T02250212  RH  092%=      5-min Rain = 0
KST2 101159Z 20004KT 23/21 A3019 RMK A01 T02250211  RH  092%=      5-min Rain = 0
KST2 101200Z 20004KT 23/21 A3019 RMK A01 T02250211  RH  092%=      5-min Rain = 0
KST2 101201Z 20004KT 23/21 A3019 RMK A01 T02250211  RH  092%=      5-min Rain = 0
KST2 101202Z 20004KT 23/21 A3019 RMK A01 T02250211  RH  092%=      5-min Rain = 0
KST2 101203Z 20004KT 23/21 A3019 RMK A01 T02250211  RH  092%=      5-min Rain = 0
KST2 101204Z 20004KT 23/21 A3019 RMK A01 T02250211  RH  092%=      5-min Rain = 0
KST2 101205Z 20004KT 23/21 A3019 RMK A01 T02250211  RH  092%=      5-min Rain = 0
KST2 101206Z 19004KT 23/21 A3019 RMK A01 T02250211  RH  092%=      5-min Rain = 0
KST2 101207Z 19004KT 23/21 A3019 RMK A01 T02250211  RH  092%=      5-min Rain = 0
KST2 101208Z 18005KT 23/21 A3019 RMK A01 T02250211  RH  092%=      5-min Rain = 0
KST2 101209Z 18004KT 23/21 A3019 RMK A01 T02250211  RH  092%=      5-min Rain = 0
KST2 101210Z 18004KT 23/21 A3019 RMK A01 T02250211  RH  092%=      5-min Rain = 0
KST2 101211Z 19004KT 23/21 A3019 RMK A01 T02260211  RH  092%=      5-min Rain = 0
KST2 101212Z 19004KT 23/21 A3019 RMK A01 T02250211  RH  092%=      5-min Rain = 0
KST2 101213Z 19003KT 23/21 A3019 RMK A01 T02250211  RH  092%=      5-min Rain = 0
KST2 101214Z 19003KT 23/21 A3019 RMK A01 T02260212  RH  092%=      5-min Rain = 0
KST2 101215Z 19003KT 23/21 A3019 RMK A01 T02260212  RH  092%=      5-min Rain = 0
KST2 101216Z 19004KT 23/21 A3019 RMK A01 T02250212  RH  092%=      5-min Rain = 0
KST2 101217Z 19004KT 23/21 A3019 RMK A01 T02250212  RH  092%=      5-min Rain = 0
KST2 101218Z 19003KT 23/21 A3019 RMK A01 T02250212  RH  092%=      5-min Rain = 0
KST2 101219Z 20003KT 23/21 A3019 RMK A01 T02250212  RH  092%=      5-min Rain = 0
KST2 101220Z 19004KT 23/21 A3019 RMK A01 T02260212  RH  092%=      5-min Rain = 0
KST2 101221Z 20004KT 23/21 A3019 RMK A01 T02260212  RH  092%=      5-min Rain = 0
KST2 101222Z 20004KT 23/21 A3019 RMK A01 T02250212  RH  092%=      5-min Rain = 0
KST2 101223Z 21003KT 23/21 A3019 RMK A01 T02260212  RH  092%=      5-min Rain = 0
KST2 101224Z 20003KT 23/21 A3019 RMK A01 T02250212  RH  092%=      5-min Rain = 0
KST2 101225Z 21003KT 23/21 A3019 RMK A01 T02260211  RH  092%=      5-min Rain = 0
KST2 101226Z 21003KT 23/21 A3019 RMK A01 T02260212  RH  092%=      5-min Rain = 0
KST2 101227Z 21003KT 23/21 A3019 RMK A01 T02260212  RH  092%=      5-min Rain = 0
KST2 101228Z 21004KT 23/21 A3019 RMK A01 T02260212  RH  091%=      5-min Rain = 0
KST2 101229Z 21003KT 23/21 A3019 RMK A01 T02260211  RH  091%=      5-min Rain = 0
KST2 101230Z 20003KT 23/21 A3019 RMK A01 T02260211  RH  091%=      5-min Rain = 0
KST2 101231Z 20003KT 23/21 A3019 RMK A01 T02260212  RH  091%=      5-min Rain = 0
KST2 101232Z 20003KT 23/21 A3019 RMK A01 T02260211  RH  091%=      5-min Rain = 0
KST2 101233Z 20002KT 23/21 A3019 RMK A01 T02260211  RH  091%=      5-min Rain = 0
KST2 101234Z 20003KT 23/21 A3019 RMK A01 T02260212  RH  091%=      5-min Rain = 0
KST2 101235Z 20003KT 23/21 A3019 RMK A01 T02270212  RH  091%=      5-min Rain = 0
KST2 101236Z 19003KT 23/21 A3019 RMK A01 T02260211  RH  091%=      5-min Rain = 0
KST2 101237Z 20003KT 23/21 A3019 RMK A01 T02270212  RH  091%=      5-min Rain = 0
KST2 101238Z 20003KT 23/21 A3019 RMK A01 T02270211  RH  091%=      5-min Rain = 0
KST2 101239Z 20003KT 23/21 A3019 RMK A01 T02280211  RH  091%=      5-min Rain = 0
KST2 101240Z 20003KT 23/21 A3019 RMK A01 T02280211  RH  090%=      5-min Rain = 0
KST2 101241Z 19003KT 23/21 A3019 RMK A01 T02280212  RH  090%=      5-min Rain = 0
KST2 101242Z 19004KT 23/21 A3019 RMK A01 T02290212  RH  090%=      5-min Rain = 0
KST2 101243Z 19004KT 23/21 A3019 RMK A01 T02290211  RH  090%=      5-min Rain = 0
KST2 101244Z 19003KT 23/21 A3019 RMK A01 T02300212  RH  090%=      5-min Rain = 0
KST2 101245Z 20003KT 23/21 A3019 RMK A01 T02300212  RH  090%=      5-min Rain = 0
KST2 101246Z 22003KT 23/21 A3019 RMK A01 T02310212  RH  089%=      5-min Rain = 0
KST2 101247Z 23003KT 23/21 A3019 RMK A01 T02310211  RH  089%=      5-min Rain = 0
KST2 101248Z 23003KT 23/21 A3019 RMK A01 T02310211  RH  088%=      5-min Rain = 0
KST2 101249Z 22003KT 23/21 A3019 RMK A01 T02320212  RH  089%=      5-min Rain = 0
KST2 101250Z 20004KT 23/21 A3019 RMK A01 T02330212  RH  088%=      5-min Rain = 0
KST2 101251Z 20005KT 23/21 A3019 RMK A01 T02330211  RH  087%=      5-min Rain = 0
KST2 101252Z 20004KT 23/21 A3019 RMK A01 T02340212  RH  087%=      5-min Rain = 0
KST2 101253Z 21003KT 24/21 A3019 RMK A01 T02350212  RH  087%=      5-min Rain = 0
KST2 101254Z 22004KT 24/21 A3019 RMK A01 T02360212  RH  087%=      5-min Rain = 0
KST2 101255Z 21004KT 24/21 A3019 RMK A01 T02360212  RH  086%=      5-min Rain = 0
KST2 101256Z 21005KT 24/21 A3019 RMK A01 T02360211  RH  085%=      5-min Rain = 0
KST2 101257Z 21005KT 24/21 A3019 RMK A01 T02370210  RH  085%=      5-min Rain = 0
KST2 101258Z 20005KT 24/21 A3019 RMK A01 T02370211  RH  085%=      5-min Rain = 0
KST2 101259Z 20005KT 24/21 A3019 RMK A01 T02380210  RH  084%=      5-min Rain = 0
KST2 101300Z 21006KT 24/21 A3019 RMK A01 T02380210  RH  084%=      5-min Rain = 0
KST2 101301Z 21004KT 24/21 A3019 RMK A01 T02390209  RH  084%=      5-min Rain = 0
KST2 101302Z 21005KT 24/21 A3019 RMK A01 T02390211  RH  084%=      5-min Rain = 0
KST2 101303Z 22005KT 24/21 A3019 RMK A01 T02400210  RH  084%=      5-min Rain = 0
KST2 101304Z 22005KT 24/21 A3019 RMK A01 T02400211  RH  084%=      5-min Rain = 0
KST2 101305Z 22004KT 24/21 A3019 RMK A01 T02400210  RH  084%=      5-min Rain = 0
KST2 101306Z 22004KT 24/21 A3019 RMK A01 T02400211  RH  084%=      5-min Rain = 0
KST2 101307Z 22005KT 24/21 A3019 RMK A01 T02400210  RH  083%=      5-min Rain = 0
KST2 101308Z 22005KT 24/21 A3019 RMK A01 T02410211  RH  083%=      5-min Rain = 0
KST2 101309Z 21005KT 24/21 A3019 RMK A01 T02410210  RH  083%=      5-min Rain = 0
KST2 101310Z 20006KT 24/21 A3019 RMK A01 T02420211  RH  083%=      5-min Rain = 0
KST2 101311Z 20006KT 24/21 A3019 RMK A01 T02430210  RH  082%=      5-min Rain = 0
KST2 101312Z 20005KT 24/21 A3019 RMK A01 T02430211  RH  082%=      5-min Rain = 0
KST2 101313Z 21006KT 24/21 A3019 RMK A01 T02430211  RH  082%=      5-min Rain = 0
KST2 101314Z 21005KT 24/21 A3019 RMK A01 T02440211  RH  082%=      5-min Rain = 0
KST2 101315Z 22004KT 24/21 A3019 RMK A01 T02440211  RH  082%=      5-min Rain = 0
KST2 101316Z 22006KT 24/21 A3019 RMK A01 T02440211  RH  082%=      5-min Rain = 0
KST2 101317Z 22005KT 24/21 A3019 RMK A01 T02440211  RH  082%=      5-min Rain = 0
KST2 101318Z 22004KT 25/21 A3019 RMK A01 T02450211  RH  081%=      5-min Rain = 0
KST2 101319Z 21004KT 25/21 A3019 RMK A01 T02460211  RH  081%=      5-min Rain = 0
KST2 101320Z 22005KT 25/21 A3019 RMK A01 T02460210  RH  081%=      5-min Rain = 0
KST2 101321Z 22005KT 25/21 A302 RMK A01 T02460210  RH  080%=      5-min Rain = 0
KST2 101322Z 22005KT 25/21 A302 RMK A01 T02470211  RH  081%=      5-min Rain = 0
KST2 101323Z 23004KT 25/21 A302 RMK A01 T02460210  RH  080%=      5-min Rain = 0
KST2 101324Z 22005KT 25/21 A302 RMK A01 T02470211  RH  081%=      5-min Rain = 0
KST2 101325Z 22005KT 25/21 A302 RMK A01 T02470211  RH  080%=      5-min Rain = 0
KST2 101326Z 23004KT 25/21 A302 RMK A01 T02470211  RH  080%=      5-min Rain = 0
KST2 101327Z 22004KT 25/21 A302 RMK A01 T02490211  RH  079%=      5-min Rain = 0
KST2 101328Z 22004KT 25/21 A302 RMK A01 T02490211  RH  079%=      5-min Rain = 0
KST2 101329Z 20004KT 25/21 A302 RMK A01 T02490211  RH  079%=      5-min Rain = 0
KST2 101330Z 22005KT 25/21 A302 RMK A01 T02500212  RH  079%=      5-min Rain = 0
KST2 101331Z 22005KT 25/21 A302 RMK A01 T02500210  RH  078%=      5-min Rain = 0
KST2 101332Z 23005KT 25/21 A302 RMK A01 T02500211  RH  079%=      5-min Rain = 0
KST2 101333Z 22004KT 25/21 A302 RMK A01 T02500212  RH  079%=      5-min Rain = 0
KST2 101334Z 21005KT 25/21 A302 RMK A01 T02490211  RH  079%=      5-min Rain = 0
KST2 101335Z 21005KT 25/21 A302 RMK A01 T02500210  RH  079%=      5-min Rain = 0
KST2 101336Z 22004KT 25/21 A302 RMK A01 T02500211  RH  079%=      5-min Rain = 0
KST2 101337Z 22004KT 25/21 A302 RMK A01 T02500211  RH  079%=      5-min Rain = 0
KST2 101338Z 20004KT 25/21 A302 RMK A01 T02500212  RH  080%=      5-min Rain = 0
KST2 101339Z 20004KT 25/21 A302 RMK A01 T02520212  RH  078%=      5-min Rain = 0
KST2 101340Z 22004KT 25/21 A302 RMK A01 T02520211  RH  078%=      5-min Rain = 0
KST2 101341Z 22004KT 25/21 A302 RMK A01 T02530210  RH  077%=      5-min Rain = 0
KST2 101342Z 21004KT 25/21 A302 RMK A01 T02530212  RH  078%=      5-min Rain = 0
KST2 101343Z 21006KT 25/21 A302 RMK A01 T02540211  RH  077%=      5-min Rain = 0
KST2 101344Z 20005KT 26/21 A302 RMK A01 T02550211  RH  077%=      5-min Rain = 0
KST2 101345Z 21004KT 26/21 A302 RMK A01 T02550212  RH  077%=      5-min Rain = 0
KST2 101346Z 22004KT 26/21 A302 RMK A01 T02550211  RH  076%=      5-min Rain = 0
KST2 101347Z 20006KT 26/21 A302 RMK A01 T02550212  RH  077%=      5-min Rain = 0
KST2 101348Z 21004KT 26/21 A302 RMK A01 T02550211  RH  076%=      5-min Rain = 0
KST2 101349Z 19005KT 26/21 A302 RMK A01 T02550211  RH  077%=      5-min Rain = 0
KST2 101350Z 20004KT 26/21 A302 RMK A01 T02550210  RH  076%=      5-min Rain = 0
KST2 101351Z 20005KT 26/21 A302 RMK A01 T02550211  RH  077%=      5-min Rain = 0
KST2 101352Z 22004KT 26/21 A302 RMK A01 T02560211  RH  076%=      5-min Rain = 0
KST2 101353Z 21004KT 26/21 A302 RMK A01 T02570211  RH  075%=      5-min Rain = 0
KST2 101354Z 20004KT 26/21 A302 RMK A01 T02580211  RH  076%=      5-min Rain = 0
KST2 101355Z 22005KT 26/21 A302 RMK A01 T02570211  RH  076%=      5-min Rain = 0
KST2 101356Z 22004KT 26/21 A302 RMK A01 T02580207  RH  073%=      5-min Rain = 0
KST2 101357Z 21005KT 26/21 A302 RMK A01 T02590209  RH  074%=      5-min Rain = 0
KST2 101358Z 21005KT 26/21 A302 RMK A01 T02590210  RH  074%=      5-min Rain = 0
KST2 101359Z 21004KT 26/21 A302 RMK A01 T02590211  RH  075%=      5-min Rain = 0
KST2 101400Z 20005KT 26/21 A302 RMK A01 T02610211  RH  074%=      5-min Rain = 0
KST2 101401Z 21004KT 26/21 A302 RMK A01 T02610210  RH  073%=      5-min Rain = 0
KST2 101402Z 22004KT 26/21 A302 RMK A01 T02610210  RH  073%=      5-min Rain = 0
KST2 101403Z 22006KT 26/21 A302 RMK A01 T02620210  RH  073%=      5-min Rain = 0
KST2 101404Z 23006KT 26/21 A302 RMK A01 T02630209  RH  072%=      5-min Rain = 0
KST2 101405Z 22005KT 26/21 A302 RMK A01 T02630210  RH  073%=      5-min Rain = 0
KST2 101406Z 23004KT 26/21 A302 RMK A01 T02630211  RH  073%=      5-min Rain = 0
KST2 101407Z 22006KT 26/21 A302 RMK A01 T02630209  RH  072%=      5-min Rain = 0
KST2 101408Z 22005KT 26/21 A302 RMK A01 T02640207  RH  071%=      5-min Rain = 0
KST2 101409Z 21005KT 27/21 A302 RMK A01 T02650207  RH  070%=      5-min Rain = 0
KST2 101410Z 20004KT 27/21 A302 RMK A01 T02660207  RH  070%=      5-min Rain = 0
KST2 101411Z 21005KT 27/21 A302 RMK A01 T02650208  RH  071%=      5-min Rain = 0
KST2 101412Z 23003KT 26/21 A302 RMK A01 T02640208  RH  071%=      5-min Rain = 0
KST2 101413Z 23004KT 26/21 A3021 RMK A01 T02640209  RH  072%=      5-min Rain = 0
KST2 101414Z 23004KT 27/20 A3021 RMK A01 T02650204  RH  069%=      5-min Rain = 0
KST2 101415Z 23004KT 27/21 A3021 RMK A01 T02660206  RH  070%=      5-min Rain = 0
KST2 101416Z 22004KT 27/21 A3021 RMK A01 T02660207  RH  070%=      5-min Rain = 0
KST2 101417Z 22005KT 27/21 A302 RMK A01 T02670206  RH  070%=      5-min Rain = 0
KST2 101418Z 23006KT 27/21 A302 RMK A01 T02670205  RH  069%=      5-min Rain = 0
KST2 101419Z 24006KT 27/20 A302 RMK A01 T02670204  RH  068%=      5-min Rain = 0
KST2 101420Z 24006KT 27/21 A302 RMK A01 T02670205  RH  068%=      5-min Rain = 0
KST2 101421Z 23006KT 27/21 A302 RMK A01 T02670205  RH  069%=      5-min Rain = 0
KST2 101422Z 22006KT 27/20 A302 RMK A01 T02680204  RH  068%=      5-min Rain = 0
KST2 101423Z 23006KT 27/21 A3021 RMK A01 T02680205  RH  068%=      5-min Rain = 0
KST2 101424Z 24007KT 27/21 A302 RMK A01 T02680207  RH  069%=      5-min Rain = 0
KST2 101425Z 22006KT 27/21 A302 RMK A01 T02690206  RH  068%=      5-min Rain = 0
KST2 101426Z 23006KT 27/21 A302 RMK A01 T02710205  RH  067%=      5-min Rain = 0
KST2 101427Z 23005KT 27/21 A302 RMK A01 T02700205  RH  068%=      5-min Rain = 0
KST2 101428Z 23006KT 27/21 A302 RMK A01 T02690208  RH  069%=      5-min Rain = 0
KST2 101429Z 24005KT 27/21 A302 RMK A01 T02710207  RH  068%=      5-min Rain = 0
KST2 101430Z 24005KT 27/21 A302 RMK A01 T02720208  RH  068%=      5-min Rain = 0
KST2 101431Z 25005KT 27/21 A302 RMK A01 T02720208  RH  068%=      5-min Rain = 0
KST2 101432Z 24004KT 27/21 A302 RMK A01 T02720209  RH  068%=      5-min Rain = 0
KST2 101433Z 24008KT 27/21 A302 RMK A01 T02740209  RH  068%=      5-min Rain = 0
KST2 101434Z 24007KT 28/21 A302 RMK A01 T02750207  RH  066%=      5-min Rain = 0
KST2 101435Z 24006KT 27/21 A302 RMK A01 T02740208  RH  067%=      5-min Rain = 0
KST2 101436Z 25007KT 27/21 A302 RMK A01 T02730208  RH  067%=      5-min Rain = 0
KST2 101437Z 24007KT 27/21 A302 RMK A01 T02730207  RH  067%=      5-min Rain = 0
KST2 101438Z 22006KT 27/21 A302 RMK A01 T02740209  RH  068%=      5-min Rain = 0
KST2 101439Z 23007KT 28/21 A302 RMK A01 T02760209  RH  067%=      5-min Rain = 0
KST2 101440Z 23007KT 28/21 A302 RMK A01 T02770209  RH  066%=      5-min Rain = 0
KST2 101441Z 23006KT 28/21 A302 RMK A01 T02760207  RH  066%=      5-min Rain = 0
KST2 101442Z 25006KT 27/21 A302 RMK A01 T02740208  RH  067%=      5-min Rain = 0
KST2 101443Z 23006KT 27/21 A302 RMK A01 T02740208  RH  067%=      5-min Rain = 0
KST2 101444Z 23005KT 27/21 A302 RMK A01 T02740207  RH  067%=      5-min Rain = 0
KST2 101445Z 25005KT 27/21 A302 RMK A01 T02740207  RH  067%=      5-min Rain = 0
KST2 101446Z 23005G10KT 27/21 A302 RMK A01 T02740209  RH  068%=      5-min Rain = 0
KST2 101447Z 24007KT 28/21 A302 RMK A01 T02760211  RH  068%=      5-min Rain = 0
KST2 101448Z 25006KT 28/21 A302 RMK A01 T02790209  RH  066%=      5-min Rain = 0
KST2 101449Z 24006KT 28/21 A302 RMK A01 T02790208  RH  065%=      5-min Rain = 0
KST2 101450Z 24007KT 28/21 A302 RMK A01 T02780210  RH  067%=      5-min Rain = 0
KST2 101451Z 22006KT 28/21 A302 RMK A01 T02780208  RH  066%=      5-min Rain = 0
KST2 101452Z 21007KT 28/21 A302 RMK A01 T02780208  RH  066%=      5-min Rain = 0
KST2 101453Z 22006KT 28/21 A302 RMK A01 T02780208  RH  066%=      5-min Rain = 0
KST2 101454Z 25006KT 28/21 A302 RMK A01 T02780208  RH  066%=      5-min Rain = 0
KST2 101455Z 23007KT 28/21 A302 RMK A01 T02780209  RH  066%=      5-min Rain = 0
KST2 101456Z 22006KT 28/21 A302 RMK A01 T02790208  RH  065%=      5-min Rain = 0
KST2 101457Z 22005G10KT 28/21 A302 RMK A01 T02790209  RH  066%=      5-min Rain = 0
KST2 101458Z 23010KT 28/21 A302 RMK A01 T02820211  RH  065%=      5-min Rain = 0
KST2 101459Z 24011KT 29/21 A302 RMK A01 T02850210  RH  064%=      5-min Rain = 0
KST2 101500Z 24011KT 29/21 A302 RMK A01 T02850209  RH  063%=      5-min Rain = 0
KST2 101501Z 25009KT 29/21 A302 RMK A01 T02850209  RH  063%=      5-min Rain = 0
KST2 101502Z 24007KT 28/21 A302 RMK A01 T02840208  RH  063%=      5-min Rain = 0
KST2 101503Z 25007KT 28/21 A302 RMK A01 T02830208  RH  064%=      5-min Rain = 0
KST2 101504Z 23006KT 28/21 A302 RMK A01 T02820208  RH  064%=      5-min Rain = 0
KST2 101505Z 23009KT 28/21 A302 RMK A01 T02820208  RH  064%=      5-min Rain = 0
KST2 101506Z 25010KT 28/21 A302 RMK A01 T02820210  RH  065%=      5-min Rain = 0
KST2 101507Z 25009KT 28/21 A302 RMK A01 T02840208  RH  063%=      5-min Rain = 0
KST2 101508Z 25009KT 29/21 A302 RMK A01 T02850208  RH  063%=      5-min Rain = 0
KST2 101509Z 25008KT 28/21 A302 RMK A01 T02840208  RH  063%=      5-min Rain = 0
KST2 101510Z 24011KT 28/21 A302 RMK A01 T02840208  RH  063%=      5-min Rain = 0
KST2 101511Z 23009KT 29/21 A302 RMK A01 T02850209  RH  063%=      5-min Rain = 0
KST2 101512Z 22008KT 29/21 A302 RMK A01 T02870209  RH  063%=      5-min Rain = 0
KST2 101513Z 22009KT 29/21 A302 RMK A01 T02870208  RH  062%=      5-min Rain = 0
KST2 101514Z 22009KT 29/21 A302 RMK A01 T02870207  RH  062%=      5-min Rain = 0
KST2 101515Z 23009KT 29/21 A302 RMK A01 T02850208  RH  063%=      5-min Rain = 0
KST2 101516Z 21008KT 29/21 A302 RMK A01 T02850208  RH  063%=      5-min Rain = 0
KST2 101517Z 23010KT 29/21 A302 RMK A01 T02860209  RH  063%=      5-min Rain = 0
KST2 101518Z 23009KT 29/21 A302 RMK A01 T02880208  RH  062%=      5-min Rain = 0
KST2 101519Z 24009KT 29/21 A302 RMK A01 T02890208  RH  062%=      5-min Rain = 0
KST2 101520Z 25009KT 29/21 A302 RMK A01 T02890209  RH  062%=      5-min Rain = 0
KST2 101521Z 25009KT 29/21 A302 RMK A01 T02890208  RH  062%=      5-min Rain = 0
KST2 101522Z 25008KT 29/21 A302 RMK A01 T02890208  RH  062%=      5-min Rain = 0
KST2 101523Z 25009KT 29/21 A302 RMK A01 T02890209  RH  062%=      5-min Rain = 0
KST2 101524Z 25009KT 29/21 A302 RMK A01 T02890209  RH  062%=      5-min Rain = 0
KST2 101525Z 25007KT 29/21 A302 RMK A01 T02890209  RH  062%=      5-min Rain = 0
KST2 101526Z 27006KT 29/21 A302 RMK A01 T02900208  RH  061%=      5-min Rain = 0
KST2 101527Z 25007KT 29/21 A302 RMK A01 T02900210  RH  062%=      5-min Rain = 0
KST2 101528Z 25011KT 29/21 A302 RMK A01 T02920209  RH  061%=      5-min Rain = 0
KST2 101529Z 24009KT 29/21 A302 RMK A01 T02920208  RH  061%=      5-min Rain = 0
KST2 101530Z 23008KT 29/21 A302 RMK A01 T02910209  RH  061%=      5-min Rain = 0
KST2 101531Z 26008KT 29/21 A302 RMK A01 T02900208  RH  061%=      5-min Rain = 0
KST2 101532Z 27009KT 29/21 A302 RMK A01 T02900208  RH  061%=      5-min Rain = 0
KST2 101533Z 26008KT 29/21 A302 RMK A01 T02900208  RH  061%=      5-min Rain = 0
KST2 101534Z 27005KT 29/21 A302 RMK A01 T02900207  RH  061%=      5-min Rain = 0
KST2 101535Z 26006KT 29/21 A302 RMK A01 T02900209  RH  061%=      5-min Rain = 0
KST2 101536Z 23010KT 29/21 A3019 RMK A01 T02930210  RH  061%=      5-min Rain = 0
KST2 101537Z 24009KT 29/21 A3019 RMK A01 T02940209  RH  060%=      5-min Rain = 0
KST2 101538Z 25009KT 29/21 A3019 RMK A01 T02940210  RH  060%=      5-min Rain = 0
KST2 101539Z 26009KT 29/21 A3019 RMK A01 T02940211  RH  061%=      5-min Rain = 0
KST2 101540Z 24010KT 29/21 A3019 RMK A01 T02940210  RH  060%=      5-min Rain = 0
KST2 101541Z 22009KT 30/21 A3019 RMK A01 T02950209  RH  060%=      5-min Rain = 0
KST2 101542Z 22008KT 29/21 A3019 RMK A01 T02940209  RH  060%=      5-min Rain = 0
KST2 101543Z 25014KT 29/21 A3019 RMK A01 T02930210  RH  061%=      5-min Rain = 0
KST2 101544Z 24012KT 30/21 A3019 RMK A01 T02950209  RH  060%=      5-min Rain = 0
KST2 101545Z 25011KT 30/21 A3019 RMK A01 T02950210  RH  060%=      5-min Rain = 0
KST2 101546Z 25010KT 30/21 A3019 RMK A01 T02970210  RH  060%=      5-min Rain = 0
KST2 101547Z 25010KT 30/21 A3019 RMK A01 T02970209  RH  059%=      5-min Rain = 0
KST2 101548Z 26008KT 30/21 A3019 RMK A01 T02970209  RH  059%=      5-min Rain = 0
KST2 101549Z 25006KT 30/21 A3019 RMK A01 T02950208  RH  059%=      5-min Rain = 0
KST2 101550Z 25006KT 29/21 A3019 RMK A01 T02940208  RH  060%=      5-min Rain = 0
KST2 101551Z 24007KT 29/21 A3019 RMK A01 T02940211  RH  061%=      5-min Rain = 0
KST2 101552Z 24008KT 30/21 A3019 RMK A01 T02960209  RH  059%=      5-min Rain = 0
KST2 101553Z 23009KT 30/21 A3019 RMK A01 T02970209  RH  059%=      5-min Rain = 0
KST2 101554Z 24008KT 30/21 A3019 RMK A01 T02980210  RH  059%=      5-min Rain = 0
KST2 101555Z 24010KT 30/21 A3019 RMK A01 T02990210  RH  059%=      5-min Rain = 0
KST2 101556Z 23009KT 30/21 A3019 RMK A01 T03000209  RH  058%=      5-min Rain = 0
KST2 101557Z 23008KT 30/21 A3019 RMK A01 T02990210  RH  059%=      5-min Rain = 0
KST2 101558Z 25008KT 30/21 A3019 RMK A01 T03000210  RH  059%=      5-min Rain = 0
KST2 101559Z 26009KT 30/21 A3019 RMK A01 T03020210  RH  058%=      5-min Rain = 0
KST2 101600Z 26008KT 30/21 A3019 RMK A01 T03020208  RH  057%=      5-min Rain = 0
KST2 101601Z 25009KT 30/21 A3019 RMK A01 T03000207  RH  058%=      5-min Rain = 0
KST2 101602Z 25007KT 30/21 A3019 RMK A01 T02990207  RH  058%=      5-min Rain = 0
KST2 101603Z 24006KT 30/21 A3019 RMK A01 T02990209  RH  059%=      5-min Rain = 0
KST2 101604Z 24008KT 30/21 A3019 RMK A01 T03000208  RH  058%=      5-min Rain = 0
KST2 101605Z 23009KT 30/21 A3019 RMK A01 T03000209  RH  058%=      5-min Rain = 0
KST2 101606Z 23007KT 30/21 A3019 RMK A01 T03000210  RH  059%=      5-min Rain = 0
KST2 101607Z 23005KT 30/21 A3019 RMK A01 T03010209  RH  058%=      5-min Rain = 0
KST2 101608Z 28006KT 30/21 A3019 RMK A01 T03010208  RH  057%=      5-min Rain = 0
KST2 101609Z 27007KT 30/21 A3019 RMK A01 T03030209  RH  057%=      5-min Rain = 0
KST2 101610Z 27007KT 30/21 A3019 RMK A01 T03040209  RH  057%=      5-min Rain = 0
KST2 101611Z 27005KT 30/21 A3019 RMK A01 T03030209  RH  057%=      5-min Rain = 0
KST2 101612Z 27008KT 30/21 A3019 RMK A01 T03020208  RH  057%=      5-min Rain = 0
KST2 101613Z 28007KT 30/21 A3019 RMK A01 T03020208  RH  057%=      5-min Rain = 0
KST2 101614Z 28008KT 30/21 A3019 RMK A01 T03010208  RH  057%=      5-min Rain = 0
KST2 101615Z 29009KT 30/21 A3018 RMK A01 T03020207  RH  057%=      5-min Rain = 0
KST2 101616Z 26008KT 30/21 A3019 RMK A01 T03030206  RH  056%=      5-min Rain = 0
KST2 101617Z 26008KT 30/20 A3019 RMK A01 T03010204  RH  056%=      5-min Rain = 0
KST2 101618Z 26007KT 30/20 A3019 RMK A01 T02990203  RH  056%=      5-min Rain = 0
KST2 101619Z 25008KT 30/20 A3018 RMK A01 T02970204  RH  057%=      5-min Rain = 0
KST2 101620Z 25007KT 30/20 A3019 RMK A01 T02960204  RH  058%=      5-min Rain = 0
KST2 101621Z 24006KT 30/21 A3018 RMK A01 T02950206  RH  058%=      5-min Rain = 0
KST2 101622Z 25004KT 30/21 A3018 RMK A01 T02960207  RH  059%=      5-min Rain = 0
KST2 101623Z 28004KT 30/21 A3018 RMK A01 T02960207  RH  059%=      5-min Rain = 0
KST2 101624Z 26004KT 30/21 A3018 RMK A01 T02960205  RH  058%=      5-min Rain = 0
KST2 101625Z 23004KT 30/20 A3018 RMK A01 T02960204  RH  058%=      5-min Rain = 0
KST2 101626Z 22007KT 30/20 A3018 RMK A01 T02980203  RH  057%=      5-min Rain = 0
KST2 101627Z 22004KT 30/20 A3018 RMK A01 T03010202  RH  055%=      5-min Rain = 0
KST2 101628Z 27006KT 30/21 A3018 RMK A01 T03030206  RH  056%=      5-min Rain = 0
KST2 101629Z 27006KT 31/21 A3018 RMK A01 T03070206  RH  055%=      5-min Rain = 0
KST2 101630Z 27006KT 31/20 A3018 RMK A01 T03080204  RH  054%=      5-min Rain = 0
KST2 101631Z 29004KT 31/20 A3018 RMK A01 T03080202  RH  053%=      5-min Rain = 0
KST2 101632Z 30004KT 31/20 A3018 RMK A01 T03070204  RH  054%=      5-min Rain = 0
KST2 101633Z 28002KT 31/20 A3018 RMK A01 T03060204  RH  054%=      5-min Rain = 0
KST2 101634Z 25002KT 31/21 A3018 RMK A01 T03070205  RH  055%=      5-min Rain = 0
KST2 101635Z 25006KT 31/21 A3018 RMK A01 T03090205  RH  054%=      5-min Rain = 0
KST2 101636Z 25008KT 31/20 A3018 RMK A01 T03120203  RH  053%=      5-min Rain = 0
KST2 101637Z 24009KT 31/21 A3018 RMK A01 T03130206  RH  053%=      5-min Rain = 0
KST2 101638Z 24009KT 31/20 A3018 RMK A01 T03130204  RH  052%=      5-min Rain = 0
KST2 101639Z 23006KT 31/20 A3018 RMK A01 T03110204  RH  053%=      5-min Rain = 0
KST2 101640Z 24007KT 31/20 A3018 RMK A01 T03090204  RH  054%=      5-min Rain = 0
KST2 101641Z 26007KT 31/21 A3018 RMK A01 T03090206  RH  054%=      5-min Rain = 0
KST2 101642Z 29008KT 31/20 A3018 RMK A01 T03110204  RH  053%=      5-min Rain = 0
KST2 101643Z 29007KT 31/20 A3018 RMK A01 T03100204  RH  053%=      5-min Rain = 0
KST2 101644Z 27005KT 31/20 A3018 RMK A01 T03080202  RH  053%=      5-min Rain = 0
KST2 101645Z 26005KT 31/20 A3018 RMK A01 T03070203  RH  054%=      5-min Rain = 0
KST2 101646Z 27005KT 31/20 A3018 RMK A01 T03070203  RH  054%=      5-min Rain = 0
KST2 101647Z 29003KT 31/20 A3018 RMK A01 T03070201  RH  053%=      5-min Rain = 0
KST2 101648Z 31005KT 31/20 A3018 RMK A01 T03050201  RH  054%=      5-min Rain = 0
KST2 101649Z 32004KT 30/20 A3018 RMK A01 T03040202  RH  054%=      5-min Rain = 0
KST2 101650Z 31005KT 30/20 A3018 RMK A01 T03040202  RH  055%=      5-min Rain = 0
KST2 101651Z 27005KT 30/20 A3018 RMK A01 T03040201  RH  054%=      5-min Rain = 0
KST2 101652Z 22006KT 30/20 A3018 RMK A01 T03040199  RH  054%=      5-min Rain = 0
KST2 101653Z 23006KT 31/20 A3018 RMK A01 T03050198  RH  053%=      5-min Rain = 0
KST2 101654Z 24005KT 30/20 A3018 RMK A01 T03040200  RH  054%=      5-min Rain = 0
KST2 101655Z 25003KT 30/20 A3018 RMK A01 T03030200  RH  054%=      5-min Rain = 0
KST2 101656Z 26003KT 30/20 A3017 RMK A01 T03030199  RH  054%=      5-min Rain = 0
KST2 101657Z 25003KT 30/20 A3017 RMK A01 T03040201  RH  054%=      5-min Rain = 0
KST2 101658Z 23005KT 31/20 A3017 RMK A01 T03060202  RH  054%=      5-min Rain = 0
KST2 101659Z 23007KT 31/20 A3017 RMK A01 T03070201  RH  053%=      5-min Rain = 0
KST2 101700Z 23006KT 31/20 A3017 RMK A01 T03060200  RH  053%=      5-min Rain = 0
KST2 101701Z 24006KT 30/20 A3017 RMK A01 T03040198  RH  053%=      5-min Rain = 0
KST2 101702Z 27007KT 31/20 A3017 RMK A01 T03050196  RH  052%=      5-min Rain = 0
KST2 101703Z 25007KT 31/20 A3017 RMK A01 T03070196  RH  052%=      5-min Rain = 0
KST2 101704Z 26006KT 31/20 A3017 RMK A01 T03070197  RH  052%=      5-min Rain = 0
KST2 101705Z 24006KT 31/19 A3017 RMK A01 T03110193  RH  050%=      5-min Rain = 0
KST2 101706Z 23003KT 31/19 A3017 RMK A01 T03110191  RH  049%=      5-min Rain = 0
KST2 101707Z 25000KT 31/19 A3017 RMK A01 T03100191  RH  049%=      5-min Rain = 0
KST2 101708Z 27001KT 31/19 A3017 RMK A01 T03090194  RH  050%=      5-min Rain = 0
KST2 101709Z 08003KT 31/20 A3017 RMK A01 T03100196  RH  051%=      5-min Rain = 0
KST2 101710Z 31005KT 31/20 A3017 RMK A01 T03120196  RH  050%=      5-min Rain = 0
KST2 101711Z 29005KT 31/20 A3017 RMK A01 T03120197  RH  051%=      5-min Rain = 0
KST2 101712Z 27004KT 31/20 A3017 RMK A01 T03110203  RH  053%=      5-min Rain = 0
KST2 101713Z 27007KT 31/20 A3017 RMK A01 T03110202  RH  053%=      5-min Rain = 0
KST2 101714Z 26008KT 31/20 A3017 RMK A01 T03110202  RH  052%=      5-min Rain = 0
KST2 101715Z 26008KT 31/20 A3017 RMK A01 T03100204  RH  053%=      5-min Rain = 0
KST2 101716Z 26007KT 31/20 A3017 RMK A01 T03110202  RH  052%=      5-min Rain = 0
KST2 101717Z 27007KT 31/20 A3017 RMK A01 T03130200  RH  051%=      5-min Rain = 0
KST2 101718Z 24008KT 31/20 A3016 RMK A01 T03130202  RH  052%=      5-min Rain = 0
KST2 101719Z 23007KT 31/20 A3016 RMK A01 T03140202  RH  051%=      5-min Rain = 0
KST2 101720Z 26006KT 32/20 A3016 RMK A01 T03150203  RH  051%=      5-min Rain = 0
KST2 101721Z 25005KT 32/20 A3017 RMK A01 T03170202  RH  051%=      5-min Rain = 0
KST2 101722Z 26008KT 32/20 A3017 RMK A01 T03170202  RH  050%=      5-min Rain = 0
KST2 101723Z 25008KT 32/20 A3017 RMK A01 T03160201  RH  051%=      5-min Rain = 0
KST2 101724Z 24008KT 32/20 A3017 RMK A01 T03150200  RH  050%=      5-min Rain = 0
KST2 101725Z 23007KT 31/20 A3017 RMK A01 T03130198  RH  050%=      5-min Rain = 0
KST2 101726Z 22007KT 31/20 A3017 RMK A01 T03090198  RH  052%=      5-min Rain = 0
KST2 101727Z 21006KT 31/20 A3017 RMK A01 T03070198  RH  052%=      5-min Rain = 0
KST2 101728Z 23008KT 31/20 A3017 RMK A01 T03080198  RH  052%=      5-min Rain = 0
KST2 101729Z 24007KT 31/20 A3017 RMK A01 T03090196  RH  051%=      5-min Rain = 0
KST2 101730Z 21003KT 31/20 A3016 RMK A01 T03080197  RH  052%=      5-min Rain = 0
KST2 101731Z 21003KT 31/20 A3016 RMK A01 T03070196  RH  052%=      5-min Rain = 0
KST2 101732Z 24004KT 31/20 A3016 RMK A01 T03060197  RH  052%=      5-min Rain = 0
KST2 101733Z 26006KT 31/20 A3016 RMK A01 T03070197  RH  052%=      5-min Rain = 0
KST2 101734Z 25008KT 31/20 A3016 RMK A01 T03090198  RH  052%=      5-min Rain = 0
KST2 101735Z 26011KT 31/20 A3016 RMK A01 T03100196  RH  051%=      5-min Rain = 0
KST2 101736Z 27012KT 31/20 A3016 RMK A01 T03100195  RH  050%=      5-min Rain = 0
KST2 101737Z 26010KT 31/19 A3016 RMK A01 T03100194  RH  050%=      5-min Rain = 0
KST2 101738Z 25011KT 31/19 A3017 RMK A01 T03080194  RH  051%=      5-min Rain = 0
KST2 101739Z 24018KT 31/20 A3017 RMK A01 T03060203  RH  054%=      5-min Rain = 0
KST2 101740Z 24020KT 30/21 A3017 RMK A01 T02990206  RH  057%=      5-min Rain = 0
KST2 101741Z 23021KT 29/21 A3016 RMK A01 T02900205  RH  060%=      5-min Rain = 0
KST2 101742Z 24025KT 29/21 A3016 RMK A01 T02850205  RH  062%=      5-min Rain = 0
KST2 101743Z 24025KT 28/20 A3016 RMK A01 T02830204  RH  062%=      5-min Rain = 0
KST2 101744Z 24020KT 28/20 A3016 RMK A01 T02810204  RH  063%=      5-min Rain = 0
KST2 101745Z 23021G26KT 28/20 A3016 RMK A01 T02810204  RH  063%=      5-min Rain = 0
KST2 101746Z 24021G26KT 28/20 A3016 RMK A01 T02810204  RH  063%=      5-min Rain = 0
KST2 101747Z 24023KT 28/20 A3016 RMK A01 T02790204  RH  063%=      5-min Rain = 0
KST2 101748Z 24020KT 28/20 A3016 RMK A01 T02770204  RH  064%=      5-min Rain = 0
KST2 101749Z 24021KT 28/20 A3016 RMK A01 T02770204  RH  065%=      5-min Rain = 0
KST2 101750Z 23019KT 28/20 A3016 RMK A01 T02760204  RH  065%=      5-min Rain = 0
KST2 101751Z 23019KT 28/21 A3016 RMK A01 T02760205  RH  065%=      5-min Rain = 0
KST2 101752Z 24020KT 28/21 A3016 RMK A01 T02760206  RH  066%=      5-min Rain = 0
KST2 101753Z 24020KT 27/21 A3017 RMK A01 T02740206  RH  066%=      5-min Rain = 0
KST2 101754Z 24018KT 27/21 A3017 RMK A01 T02720205  RH  067%=      5-min Rain = 0
KST2 101755Z 24017KT 27/20 A3017 RMK A01 T02730203  RH  066%=      5-min Rain = 0
KST2 101756Z 23018KT 27/20 A3017 RMK A01 T02740203  RH  065%=      5-min Rain = 0
KST2 101757Z 22019KT 27/20 A3017 RMK A01 T02740202  RH  065%=      5-min Rain = 0
KST2 101758Z 21022KT 27/21 A3018 RMK A01 T02740206  RH  066%=      5-min Rain = 0
KST2 101759Z 21021G26KT 27/21 A3018 RMK A01 T02690209  RH  070%=      5-min Rain = 0
KST2 101800Z 21021KT 26/21 A3018 RMK A01 T02640209  RH  072%=      5-min Rain = 0
KST2 101801Z 21021KT 26/21 A3018 RMK A01 T02610207  RH  072%=      5-min Rain = 0
KST2 101802Z 21021KT 26/21 A3018 RMK A01 T02610205  RH  072%=      5-min Rain = 0
KST2 101803Z 21018KT 26/21 A3018 RMK A01 T02600206  RH  072%=      5-min Rain = 0
KST2 101804Z 20016KT 26/21 A3018 RMK A01 T02610208  RH  073%=      5-min Rain = 0
KST2 101805Z 20018KT 26/21 A3018 RMK A01 T02610210  RH  074%=      5-min Rain = 0
KST2 101806Z 20019KT 26/21 A3018 RMK A01 T02560209  RH  075%=      5-min Rain = 0
KST2 101807Z 20019KT 25/21 A3018 RMK A01 T02540209  RH  076%=      5-min Rain = 0
KST2 101808Z 20018KT 25/21 A3018 RMK A01 T02520210  RH  077%=      5-min Rain = 0
KST2 101809Z 21016KT 25/21 A3018 RMK A01 T02510209  RH  077%=      5-min Rain = 0
KST2 101810Z 20016KT 25/21 A3018 RMK A01 T02510209  RH  077%=      5-min Rain = 0
KST2 101811Z 20016KT 25/21 A3018 RMK A01 T02510208  RH  077%=      5-min Rain = 0
KST2 101812Z 19017KT 25/21 A3018 RMK A01 T02510208  RH  077%=      5-min Rain = 0
KST2 101813Z 19015KT 25/21 A3018 RMK A01 T02490207  RH  077%=      5-min Rain = 0
KST2 101814Z 19015KT 25/21 A3018 RMK A01 T02470206  RH  078%=      5-min Rain = 0
KST2 101815Z 19014KT 25/21 A3018 RMK A01 T02470206  RH  078%=      5-min Rain = 0
KST2 101816Z 18016KT 25/21 A3018 RMK A01 T02480205  RH  077%=      5-min Rain = 0
KST2 101817Z 18016KT 25/20 A3018 RMK A01 T02480204  RH  076%=      5-min Rain = 0
KST2 101818Z 18016KT 25/20 A3018 RMK A01 T02480204  RH  076%=      5-min Rain = 0
KST2 101819Z 18016KT 25/20 A3018 RMK A01 T02480203  RH  076%=      5-min Rain = 0
KST2 101820Z 18015KT 25/20 A3018 RMK A01 T02490203  RH  076%=      5-min Rain = 0
KST2 101821Z 18015KT 25/20 A3018 RMK A01 T02500204  RH  076%=      5-min Rain = 0
KST2 101822Z 18015KT 25/20 A3018 RMK A01 T02490204  RH  076%=      5-min Rain = 0
KST2 101823Z 18014KT 25/21 A3018 RMK A01 T02470205  RH  077%=      5-min Rain = 0
KST2 101824Z 18013KT 25/21 A3018 RMK A01 T02450206  RH  079%=      5-min Rain = 0
KST2 101825Z 18012KT 24/21 A3018 RMK A01 T02440212  RH  082%=      5-min Rain = 0
KST2 101826Z 18011KT 24/22 A3018 RMK A01 T02440215  RH  084%=      5-min Rain = 0
KST2 101827Z 18010KT 24/22 A3018 RMK A01 T02430216  RH  085%=      5-min Rain = 0
KST2 101828Z 18010KT 24/22 A3018 RMK A01 T02420219  RH  087%=      5-min Rain = 0
KST2 101829Z 18010KT 24/22 A3018 RMK A01 T02410216  RH  086%=      5-min Rain = 0
KST2 101830Z 18010KT 24/22 A3018 RMK A01 T02400217  RH  087%=      5-min Rain = 0
KST2 101831Z 18009KT 24/22 A3018 RMK A01 T02390217  RH  088%=      5-min Rain = 0
KST2 101832Z 18009KT 24/22 A3018 RMK A01 T02380217  RH  088%=      5-min Rain = 0
KST2 101833Z 19009KT 24/22 A3017 RMK A01 T02370218  RH  089%=      5-min Rain = 0
KST2 101834Z 19009KT 24/22 A3017 RMK A01 T02370218  RH  089%=      5-min Rain = 0
KST2 101835Z 19009KT 24/22 A3017 RMK A01 T02350218  RH  090%=      5-min Rain = 0
KST2 101836Z 19009KT 23/22 A3017 RMK A01 T02340218  RH  090%=      5-min Rain = 0.01
KST2 101837Z 20009KT 23/22 A3017 RMK A01 T02340220  RH  092%=      5-min Rain = 0
KST2 101838Z 20010KT 23/22 A3017 RMK A01 T02340219  RH  092%=      5-min Rain = 0
KST2 101839Z 20010KT 23/22 A3017 RMK A01 T02330219  RH  092%=      5-min Rain = 0
KST2 101840Z 20009KT 23/22 A3017 RMK A01 T02330219  RH  091%=      5-min Rain = 0
KST2 101841Z 20009KT 23/22 A3017 RMK A01 T02330220  RH  092%=      5-min Rain = 0
KST2 101842Z 19009KT 23/22 A3017 RMK A01 T02340219  RH  092%=      5-min Rain = 0.01
KST2 101843Z 19008KT 23/22 A3017 RMK A01 T02340218  RH  091%=      5-min Rain = 0
KST2 101844Z 19007KT 23/22 A3017 RMK A01 T02340218  RH  091%=      5-min Rain = 0
KST2 101845Z 19007KT 24/22 A3017 RMK A01 T02350220  RH  092%=      5-min Rain = 0
KST2 101846Z 19007KT 24/22 A3017 RMK A01 T02350221  RH  092%=      5-min Rain = 0
KST2 101847Z 19010KT 24/22 A3016 RMK A01 T02350219  RH  090%=      5-min Rain = 0
KST2 101848Z 18010KT 24/22 A3016 RMK A01 T02360218  RH  090%=      5-min Rain = 0
KST2 101849Z 18009KT 24/22 A3016 RMK A01 T02360218  RH  089%=      5-min Rain = 0
KST2 101850Z 18010KT 24/22 A3016 RMK A01 T02370218  RH  089%=      5-min Rain = 0
KST2 101851Z 18008KT 24/22 A3016 RMK A01 T02380218  RH  089%=      5-min Rain = 0
KST2 101852Z 18008KT 24/22 A3016 RMK A01 T02380221  RH  090%=      5-min Rain = 0
KST2 101853Z 18008KT 24/22 A3016 RMK A01 T02390215  RH  087%=      5-min Rain = 0
KST2 101854Z 18007KT 24/22 A3016 RMK A01 T02390216  RH  087%=      5-min Rain = 0
KST2 101855Z 18007KT 24/22 A3016 RMK A01 T02410220  RH  088%=      5-min Rain = 0
KST2 101856Z 19008KT 24/21 A3016 RMK A01 T02410214  RH  085%=      5-min Rain = 0
KST2 101857Z 19007KT 24/21 A3016 RMK A01 T02410214  RH  085%=      5-min Rain = 0
KST2 101858Z 20006KT 24/22 A3015 RMK A01 T02410215  RH  085%=      5-min Rain = 0
KST2 101859Z 20006KT 24/22 A3015 RMK A01 T02420218  RH  086%=      5-min Rain = 0
KST2 101900Z 20006KT 24/22 A3015 RMK A01 T02420217  RH  086%=      5-min Rain = 0
KST2 101901Z 20005KT 24/22 A3015 RMK A01 T02420219  RH  087%=      5-min Rain = 0
KST2 101902Z 20006KT 24/22 A3015 RMK A01 T02420220  RH  087%=      5-min Rain = 0
KST2 101903Z 20006KT 24/22 A3015 RMK A01 T02420220  RH  087%=      5-min Rain = 0
KST2 101904Z 21007KT 24/22 A3014 RMK A01 T02420221  RH  088%=      5-min Rain = 0
KST2 101905Z 21007KT 24/22 A3014 RMK A01 T02420221  RH  088%=      5-min Rain = 0
KST2 101906Z 21007KT 24/22 A3014 RMK A01 T02430220  RH  087%=      5-min Rain = 0
KST2 101907Z 20008KT 24/22 A3014 RMK A01 T02430217  RH  085%=      5-min Rain = 0
KST2 101908Z 21008KT 25/22 A3014 RMK A01 T02450218  RH  085%=      5-min Rain = 0
KST2 101909Z 20007KT 25/22 A3014 RMK A01 T02460215  RH  083%=      5-min Rain = 0
KST2 101910Z 21007KT 25/22 A3014 RMK A01 T02460217  RH  084%=      5-min Rain = 0
KST2 101911Z 20007KT 25/22 A3014 RMK A01 T02470217  RH  083%=      5-min Rain = 0
KST2 101912Z 20007KT 25/21 A3014 RMK A01 T02470214  RH  082%=      5-min Rain = 0
KST2 101913Z 20006KT 25/22 A3014 RMK A01 T02470216  RH  083%=      5-min Rain = 0
KST2 101914Z 20006KT 25/22 A3014 RMK A01 T02470219  RH  085%=      5-min Rain = 0
KST2 101915Z 20006KT 25/22 A3014 RMK A01 T02470219  RH  084%=      5-min Rain = 0
KST2 101916Z 20006KT 25/21 A3014 RMK A01 T02460214  RH  082%=      5-min Rain = 0
KST2 101917Z 20005KT 25/22 A3014 RMK A01 T02460216  RH  083%=      5-min Rain = 0
KST2 101918Z 20005KT 25/22 A3014 RMK A01 T02460217  RH  083%=      5-min Rain = 0
KST2 101919Z 20005KT 25/22 A3014 RMK A01 T02460217  RH  084%=      5-min Rain = 0
KST2 101920Z 20004KT 25/22 A3014 RMK A01 T02460218  RH  084%=      5-min Rain = 0
KST2 101921Z 21004KT 25/22 A3014 RMK A01 T02460220  RH  086%=      5-min Rain = 0
KST2 101922Z 20004KT 25/22 A3014 RMK A01 T02460221  RH  086%=      5-min Rain = 0
KST2 101923Z 20004KT 25/22 A3014 RMK A01 T02460218  RH  085%=      5-min Rain = 0
KST2 101924Z 20004KT 25/22 A3014 RMK A01 T02460221  RH  086%=      5-min Rain = 0
KST2 101925Z 20004KT 25/22 A3014 RMK A01 T02460221  RH  086%=      5-min Rain = 0
KST2 101926Z 20005KT 25/22 A3014 RMK A01 T02460220  RH  085%=      5-min Rain = 0
KST2 101927Z 20005KT 25/22 A3014 RMK A01 T02460220  RH  085%=      5-min Rain = 0
KST2 101928Z 20005KT 25/22 A3014 RMK A01 T02470221  RH  086%=      5-min Rain = 0
KST2 101929Z 20005KT 25/22 A3014 RMK A01 T02480221  RH  085%=      5-min Rain = 0
KST2 101930Z 19006KT 25/22 A3014 RMK A01 T02480219  RH  084%=      5-min Rain = 0
KST2 101931Z 19006KT 25/22 A3014 RMK A01 T02490219  RH  083%=      5-min Rain = 0
KST2 101932Z 19006KT 25/22 A3014 RMK A01 T02480219  RH  084%=      5-min Rain = 0
KST2 101933Z 20006KT 25/22 A3014 RMK A01 T02490221  RH  085%=      5-min Rain = 0
KST2 101934Z 20006KT 25/22 A3014 RMK A01 T02480222  RH  085%=      5-min Rain = 0
KST2 101935Z 20007KT 25/22 A3014 RMK A01 T02490223  RH  086%=      5-min Rain = 0
KST2 101936Z 19006KT 25/22 A3014 RMK A01 T02490221  RH  085%=      5-min Rain = 0
KST2 101937Z 20007KT 25/22 A3014 RMK A01 T02490223  RH  085%=      5-min Rain = 0
KST2 101938Z 20007KT 25/22 A3014 RMK A01 T02480223  RH  086%=      5-min Rain = 0
KST2 101939Z 21006KT 25/23 A3014 RMK A01 T02480225  RH  087%=      5-min Rain = 0
KST2 101940Z 21007KT 25/23 A3014 RMK A01 T02480225  RH  087%=      5-min Rain = 0
KST2 101941Z 21007KT 25/23 A3014 RMK A01 T02480225  RH  087%=      5-min Rain = 0
KST2 101942Z 21007KT 25/23 A3014 RMK A01 T02480225  RH  087%=      5-min Rain = 0
KST2 101943Z 22007KT 25/23 A3014 RMK A01 T02490226  RH  087%=      5-min Rain = 0
KST2 101944Z 21008KT 25/22 A3014 RMK A01 T02500224  RH  086%=      5-min Rain = 0
KST2 101945Z 22009KT 25/22 A3014 RMK A01 T02510224  RH  085%=      5-min Rain = 0
KST2 101946Z 22008KT 25/22 A3014 RMK A01 T02510223  RH  085%=      5-min Rain = 0
KST2 101947Z 21008KT 25/22 A3013 RMK A01 T02520224  RH  084%=      5-min Rain = 0
KST2 101948Z 22008KT 25/22 A3013 RMK A01 T02530224  RH  084%=      5-min Rain = 0
KST2 101949Z 22009KT 25/22 A3013 RMK A01 T02540220  RH  081%=      5-min Rain = 0
KST2 101950Z 22010KT 26/22 A3013 RMK A01 T02550221  RH  081%=      5-min Rain = 0
KST2 101951Z 22011KT 26/22 A3013 RMK A01 T02550219  RH  080%=      5-min Rain = 0
KST2 101952Z 22009KT 26/22 A3014 RMK A01 T02560220  RH  081%=      5-min Rain = 0
KST2 101953Z 22010KT 26/22 A3014 RMK A01 T02560222  RH  081%=      5-min Rain = 0
KST2 101954Z 22010KT 26/22 A3014 RMK A01 T02560220  RH  080%=      5-min Rain = 0
KST2 101955Z 22010KT 26/22 A3014 RMK A01 T02570218  RH  079%=      5-min Rain = 0
KST2 101956Z 21010KT 26/22 A3014 RMK A01 T02570220  RH  080%=      5-min Rain = 0
KST2 101957Z 21010KT 26/22 A3014 RMK A01 T02570220  RH  080%=      5-min Rain = 0
KST2 101958Z 21009KT 26/22 A3014 RMK A01 T02570224  RH  082%=      5-min Rain = 0
KST2 101959Z 21010KT 26/22 A3014 RMK A01 T02570224  RH  082%=      5-min Rain = 0
KST2 102000Z 21009KT 26/22 A3014 RMK A01 T02570224  RH  082%=      5-min Rain = 0
KST2 102001Z 21008KT 26/23 A3014 RMK A01 T02560226  RH  083%=      5-min Rain = 0
KST2 102002Z 21009KT 26/23 A3014 RMK A01 T02560227  RH  084%=      5-min Rain = 0
KST2 102003Z 20007KT 26/23 A3014 RMK A01 T02570229  RH  085%=      5-min Rain = 0
KST2 102004Z 20009KT 26/23 A3014 RMK A01 T02570226  RH  083%=      5-min Rain = 0
KST2 102005Z 20009KT 26/22 A3014 RMK A01 T02570222  RH  081%=      5-min Rain = 0
KST2 102006Z 20009KT 26/23 A3014 RMK A01 T02580225  RH  082%=      5-min Rain = 0
KST2 102007Z 20010KT 26/22 A3014 RMK A01 T02580221  RH  080%=      5-min Rain = 0
KST2 102008Z 20009KT 26/22 A3014 RMK A01 T02590218  RH  078%=      5-min Rain = 0
KST2 102009Z 19008KT 26/22 A3014 RMK A01 T02590223  RH  080%=      5-min Rain = 0
KST2 102010Z 19008KT 26/22 A3013 RMK A01 T02590221  RH  079%=      5-min Rain = 0
KST2 102011Z 19008KT 26/22 A3013 RMK A01 T02600220  RH  079%=      5-min Rain = 0
KST2 102012Z 19009KT 26/22 A3013 RMK A01 T02600217  RH  077%=      5-min Rain = 0
KST2 102013Z 20007KT 26/22 A3013 RMK A01 T02600221  RH  079%=      5-min Rain = 0
KST2 102014Z 20007KT 26/22 A3013 RMK A01 T02600223  RH  080%=      5-min Rain = 0
KST2 102015Z 20007KT 26/22 A3013 RMK A01 T02610222  RH  079%=      5-min Rain = 0
KST2 102016Z 20007KT 26/22 A3013 RMK A01 T02610223  RH  079%=      5-min Rain = 0
KST2 102017Z 21007KT 26/22 A3013 RMK A01 T02620223  RH  079%=      5-min Rain = 0
KST2 102018Z 21008KT 26/22 A3013 RMK A01 T02620219  RH  077%=      5-min Rain = 0
KST2 102019Z 21008KT 26/22 A3013 RMK A01 T02620218  RH  077%=      5-min Rain = 0
KST2 102020Z 21007KT 26/22 A3013 RMK A01 T02620220  RH  078%=      5-min Rain = 0
KST2 102021Z 21007KT 26/22 A3013 RMK A01 T02620221  RH  078%=      5-min Rain = 0
KST2 102022Z 22008KT 26/22 A3013 RMK A01 T02620218  RH  077%=      5-min Rain = 0
KST2 102023Z 21008KT 26/22 A3013 RMK A01 T02620220  RH  078%=      5-min Rain = 0
KST2 102024Z 21008KT 26/22 A3013 RMK A01 T02620219  RH  077%=      5-min Rain = 0
KST2 102025Z 21008KT 26/22 A3013 RMK A01 T02620219  RH  077%=      5-min Rain = 0
KST2 102026Z 21008KT 26/22 A3013 RMK A01 T02620222  RH  079%=      5-min Rain = 0
KST2 102027Z 21008KT 26/22 A3013 RMK A01 T02620221  RH  078%=      5-min Rain = 0
KST2 102028Z 21007KT 26/23 A3013 RMK A01 T02620225  RH  080%=      5-min Rain = 0
KST2 102029Z 20007KT 26/22 A3013 RMK A01 T02620223  RH  079%=      5-min Rain = 0
KST2 102030Z 21007KT 26/22 A3013 RMK A01 T02620224  RH  079%=      5-min Rain = 0
KST2 102031Z 20008KT 26/22 A3013 RMK A01 T02620223  RH  079%=      5-min Rain = 0
KST2 102032Z 20008KT 26/23 A3013 RMK A01 T02620225  RH  080%=      5-min Rain = 0
KST2 102033Z 19008KT 26/22 A3013 RMK A01 T02620223  RH  079%=      5-min Rain = 0
KST2 102034Z 20008KT 26/23 A3013 RMK A01 T02620226  RH  081%=      5-min Rain = 0
KST2 102035Z 19009KT 26/23 A3013 RMK A01 T02620226  RH  080%=      5-min Rain = 0
KST2 102036Z 19009KT 26/22 A3013 RMK A01 T02620222  RH  079%=      5-min Rain = 0
KST2 102037Z 19008KT 26/22 A3013 RMK A01 T02610223  RH  079%=      5-min Rain = 0
KST2 102038Z 19009KT 26/22 A3012 RMK A01 T02610224  RH  080%=      5-min Rain = 0
KST2 102039Z 18008KT 26/23 A3012 RMK A01 T02600225  RH  081%=      5-min Rain = 0
KST2 102040Z 19009KT 26/22 A3012 RMK A01 T02600223  RH  080%=      5-min Rain = 0
KST2 102041Z 19009KT 26/22 A3012 RMK A01 T02600223  RH  080%=      5-min Rain = 0
KST2 102042Z 19008KT 26/22 A3012 RMK A01 T02610223  RH  080%=      5-min Rain = 0
KST2 102043Z 20007KT 26/22 A3012 RMK A01 T02600224  RH  081%=      5-min Rain = 0
KST2 102044Z 19007KT 26/23 A3012 RMK A01 T02610226  RH  081%=      5-min Rain = 0
KST2 102045Z 19008KT 26/22 A3012 RMK A01 T02610224  RH  080%=      5-min Rain = 0
KST2 102046Z 19008KT 26/23 A3012 RMK A01 T02610225  RH  080%=      5-min Rain = 0
KST2 102047Z 19008KT 26/22 A3012 RMK A01 T02610224  RH  080%=      5-min Rain = 0
KST2 102048Z 19007KT 26/22 A3012 RMK A01 T02610224  RH  080%=      5-min Rain = 0
KST2 102049Z 19007KT 26/23 A3012 RMK A01 T02610225  RH  081%=      5-min Rain = 0
KST2 102050Z 19007KT 26/23 A3012 RMK A01 T02610225  RH  081%=      5-min Rain = 0
KST2 102051Z 19006KT 26/23 A3011 RMK A01 T02610225  RH  081%=      5-min Rain = 0
KST2 102052Z 19006KT 26/23 A3011 RMK A01 T02610227  RH  082%=      5-min Rain = 0
KST2 102053Z 20005KT 26/23 A3011 RMK A01 T02620228  RH  082%=      5-min Rain = 0
KST2 102054Z 20006KT 26/23 A3011 RMK A01 T02620225  RH  080%=      5-min Rain = 0
KST2 102055Z 20006KT 26/23 A3011 RMK A01 T02630227  RH  081%=      5-min Rain = 0
KST2 102056Z 20006KT 26/22 A3011 RMK A01 T02630224  RH  079%=      5-min Rain = 0
KST2 102057Z 20006KT 26/22 A3011 RMK A01 T02630224  RH  079%=      5-min Rain = 0
KST2 102058Z 20006KT 26/23 A3011 RMK A01 T02630228  RH  081%=      5-min Rain = 0
KST2 102059Z 20007KT 26/23 A3011 RMK A01 T02640225  RH  079%=      5-min Rain = 0
KST2 102100Z 20006KT 26/23 A3011 RMK A01 T02640225  RH  079%=      5-min Rain = 0
KST2 102101Z 20006KT 26/22 A3011 RMK A01 T02640223  RH  078%=      5-min Rain = 0
KST2 102102Z 20007KT 26/22 A3011 RMK A01 T02640223  RH  078%=      5-min Rain = 0
KST2 102103Z 20008KT 26/22 A3011 RMK A01 T02640223  RH  078%=      5-min Rain = 0
KST2 102104Z 19008KT 27/22 A3011 RMK A01 T02650222  RH  078%=      5-min Rain = 0
KST2 102105Z 19007KT 27/22 A3011 RMK A01 T02650223  RH  078%=      5-min Rain = 0
KST2 102106Z 19007KT 26/22 A3011 RMK A01 T02640224  RH  078%=      5-min Rain = 0
KST2 102107Z 20006KT 27/22 A3011 RMK A01 T02650224  RH  078%=      5-min Rain = 0
KST2 102108Z 19006KT 27/23 A3011 RMK A01 T02650225  RH  079%=      5-min Rain = 0
KST2 102109Z 19006KT 27/23 A3011 RMK A01 T02650226  RH  079%=      5-min Rain = 0
KST2 102110Z 18007KT 27/23 A301 RMK A01 T02650225  RH  079%=      5-min Rain = 0
KST2 102111Z 19006KT 27/23 A301 RMK A01 T02650226  RH  079%=      5-min Rain = 0
KST2 102112Z 19005KT 27/23 A301 RMK A01 T02650230  RH  081%=      5-min Rain = 0
KST2 102113Z 18006KT 27/23 A301 RMK A01 T02660230  RH  080%=      5-min Rain = 0
KST2 102114Z 18006KT 27/23 A301 RMK A01 T02660227  RH  079%=      5-min Rain = 0
KST2 102115Z 18007KT 27/23 A301 RMK A01 T02660227  RH  079%=      5-min Rain = 0
KST2 102116Z 18006KT 27/22 A301 RMK A01 T02660224  RH  078%=      5-min Rain = 0
KST2 102117Z 19006KT 27/23 A301 RMK A01 T02660225  RH  078%=      5-min Rain = 0
KST2 102118Z 18006KT 27/22 A301 RMK A01 T02660224  RH  078%=      5-min Rain = 0
KST2 102119Z 19006KT 27/23 A301 RMK A01 T02670225  RH  078%=      5-min Rain = 0
KST2 102120Z 18006KT 27/23 A301 RMK A01 T02680227  RH  078%=      5-min Rain = 0
KST2 102121Z 18007KT 27/23 A301 RMK A01 T02680225  RH  078%=      5-min Rain = 0
KST2 102122Z 18007KT 27/22 A301 RMK A01 T02680224  RH  077%=      5-min Rain = 0
KST2 102123Z 18008KT 27/22 A301 RMK A01 T02680224  RH  077%=      5-min Rain = 0
KST2 102124Z 18007KT 27/23 A301 RMK A01 T02680226  RH  078%=      5-min Rain = 0
KST2 102125Z 17008KT 27/23 A301 RMK A01 T02680226  RH  078%=      5-min Rain = 0
KST2 102126Z 16008KT 27/23 A301 RMK A01 T02680227  RH  078%=      5-min Rain = 0
KST2 102127Z 17007KT 27/23 A301 RMK A01 T02680226  RH  078%=      5-min Rain = 0
KST2 102128Z 16007KT 27/23 A301 RMK A01 T02680229  RH  079%=      5-min Rain = 0
KST2 102129Z 16007KT 27/23 A301 RMK A01 T02680227  RH  078%=      5-min Rain = 0
KST2 102130Z 17008KT 27/23 A301 RMK A01 T02680225  RH  077%=      5-min Rain = 0
KST2 102131Z 17008KT 27/23 A301 RMK A01 T02680225  RH  077%=      5-min Rain = 0
KST2 102132Z 17008KT 27/23 A301 RMK A01 T02680227  RH  078%=      5-min Rain = 0
KST2 102133Z 17008KT 27/23 A301 RMK A01 T02690227  RH  078%=      5-min Rain = 0
KST2 102134Z 17007KT 27/23 A301 RMK A01 T02690226  RH  077%=      5-min Rain = 0
KST2 102135Z 16007KT 27/23 A301 RMK A01 T02690228  RH  078%=      5-min Rain = 0
KST2 102136Z 16007KT 27/23 A301 RMK A01 T02690229  RH  079%=      5-min Rain = 0
KST2 102137Z 16008KT 27/23 A301 RMK A01 T02690228  RH  078%=      5-min Rain = 0
KST2 102138Z 16008KT 27/23 A301 RMK A01 T02690226  RH  077%=      5-min Rain = 0
KST2 102139Z 16009KT 27/23 A301 RMK A01 T02690226  RH  077%=      5-min Rain = 0
KST2 102140Z 16008KT 27/22 A3009 RMK A01 T02700221  RH  074%=      5-min Rain = 0
KST2 102141Z 16008KT 27/22 A3009 RMK A01 T02710222  RH  075%=      5-min Rain = 0
KST2 102142Z 16008KT 27/22 A3009 RMK A01 T02710220  RH  074%=      5-min Rain = 0
KST2 102143Z 16008KT 27/22 A3009 RMK A01 T02710219  RH  073%=      5-min Rain = 0
KST2 102144Z 16008KT 27/22 A3009 RMK A01 T02710217  RH  072%=      5-min Rain = 0
KST2 102145Z 15006KT 27/22 A3009 RMK A01 T02720220  RH  073%=      5-min Rain = 0
KST2 102146Z 15007KT 27/22 A3009 RMK A01 T02720220  RH  073%=      5-min Rain = 0
KST2 102147Z 15007KT 27/22 A3009 RMK A01 T02720216  RH  071%=      5-min Rain = 0
KST2 102148Z 15007KT 27/22 A3009 RMK A01 T02730221  RH  073%=      5-min Rain = 0
KST2 102149Z 15006KT 27/22 A3009 RMK A01 T02730220  RH  073%=      5-min Rain = 0
KST2 102150Z 15007KT 27/22 A3009 RMK A01 T02740221  RH  073%=      5-min Rain = 0
KST2 102151Z 15006KT 27/22 A3009 RMK A01 T02740218  RH  072%=      5-min Rain = 0
KST2 102152Z 15006KT 27/22 A3009 RMK A01 T02740223  RH  074%=      5-min Rain = 0
KST2 102153Z 15005KT 27/22 A3009 RMK A01 T02740222  RH  073%=      5-min Rain = 0
KST2 102154Z 15007KT 27/22 A3009 RMK A01 T02740223  RH  074%=      5-min Rain = 0
KST2 102155Z 15007KT 27/22 A3009 RMK A01 T02740217  RH  071%=      5-min Rain = 0
KST2 102156Z 16007KT 28/22 A3009 RMK A01 T02750218  RH  071%=      5-min Rain = 0
KST2 102157Z 16007KT 28/22 A3009 RMK A01 T02750219  RH  071%=      5-min Rain = 0
KST2 102158Z 16006KT 28/22 A3009 RMK A01 T02760217  RH  070%=      5-min Rain = 0
KST2 102159Z 15006KT 28/22 A3009 RMK A01 T02760223  RH  073%=      5-min Rain = 0
KST2 102200Z 15007KT 28/22 A3009 RMK A01 T02770223  RH  073%=      5-min Rain = 0
KST2 102201Z 15007KT 28/22 A3009 RMK A01 T02770220  RH  071%=      5-min Rain = 0
KST2 102202Z 15006KT 28/22 A3009 RMK A01 T02770222  RH  072%=      5-min Rain = 0
KST2 102203Z 15007KT 28/22 A3009 RMK A01 T02770222  RH  072%=      5-min Rain = 0
KST2 102204Z 15006KT 28/23 A3009 RMK A01 T02770225  RH  073%=      5-min Rain = 0
KST2 102205Z 15007KT 28/22 A3009 RMK A01 T02770224  RH  073%=      5-min Rain = 0
KST2 102206Z 15007KT 28/22 A3009 RMK A01 T02780221  RH  071%=      5-min Rain = 0
KST2 102207Z 14007KT 28/22 A3008 RMK A01 T02770221  RH  071%=      5-min Rain = 0
KST2 102208Z 14008KT 28/22 A3008 RMK A01 T02770220  RH  071%=      5-min Rain = 0
KST2 102209Z 14008KT 28/22 A3008 RMK A01 T02780219  RH  071%=      5-min Rain = 0
KST2 102210Z 14008KT 28/22 A3008 RMK A01 T02770220  RH  071%=      5-min Rain = 0
KST2 102211Z 14007KT 28/22 A3008 RMK A01 T02780220  RH  071%=      5-min Rain = 0
KST2 102212Z 15007KT 28/22 A3008 RMK A01 T02780220  RH  071%=      5-min Rain = 0
KST2 102213Z 15006KT 28/22 A3008 RMK A01 T02780221  RH  071%=      5-min Rain = 0
KST2 102214Z 16007KT 28/23 A3008 RMK A01 T02790225  RH  072%=      5-min Rain = 0
KST2 102215Z 15007KT 28/22 A3008 RMK A01 T02800220  RH  070%=      5-min Rain = 0
KST2 102216Z 15007KT 28/22 A3008 RMK A01 T02800221  RH  070%=      5-min Rain = 0
KST2 102217Z 15006KT 28/23 A3008 RMK A01 T02810225  RH  072%=      5-min Rain = 0
KST2 102218Z 15006KT 28/22 A3008 RMK A01 T02810221  RH  070%=      5-min Rain = 0
KST2 102219Z 14007KT 28/22 A3008 RMK A01 T02820219  RH  069%=      5-min Rain = 0
KST2 102220Z 15006KT 28/22 A3008 RMK A01 T02820219  RH  069%=      5-min Rain = 0
KST2 102221Z 15006KT 28/22 A3008 RMK A01 T02820220  RH  069%=      5-min Rain = 0
KST2 102222Z 15005KT 28/22 A3008 RMK A01 T02820221  RH  069%=      5-min Rain = 0
KST2 102223Z 14006KT 28/22 A3008 RMK A01 T02830221  RH  069%=      5-min Rain = 0
KST2 102224Z 14006KT 28/22 A3008 RMK A01 T02830220  RH  069%=      5-min Rain = 0
KST2 102225Z 14006KT 28/22 A3007 RMK A01 T02830220  RH  069%=      5-min Rain = 0
KST2 102226Z 14007KT 28/22 A3007 RMK A01 T02830216  RH  067%=      5-min Rain = 0
KST2 102227Z 15007KT 28/22 A3007 RMK A01 T02830217  RH  067%=      5-min Rain = 0
KST2 102228Z 15007KT 28/22 A3007 RMK A01 T02840217  RH  067%=      5-min Rain = 0
KST2 102229Z 15007KT 28/22 A3007 RMK A01 T02840216  RH  067%=      5-min Rain = 0
KST2 102230Z 14007KT 28/22 A3007 RMK A01 T02830218  RH  068%=      5-min Rain = 0
KST2 102231Z 14006KT 28/22 A3007 RMK A01 T02840223  RH  069%=      5-min Rain = 0
KST2 102232Z 14008KT 28/22 A3007 RMK A01 T02840219  RH  068%=      5-min Rain = 0
KST2 102233Z 14007KT 28/22 A3007 RMK A01 T02840217  RH  067%=      5-min Rain = 0
KST2 102234Z 14007KT 28/22 A3007 RMK A01 T02840217  RH  067%=      5-min Rain = 0
KST2 102235Z 14008KT 28/22 A3007 RMK A01 T02840216  RH  067%=      5-min Rain = 0
KST2 102236Z 15007KT 28/22 A3007 RMK A01 T02840216  RH  066%=      5-min Rain = 0
KST2 102237Z 15007KT 29/21 A3007 RMK A01 T02850214  RH  066%=      5-min Rain = 0
KST2 102238Z 15008KT 29/22 A3007 RMK A01 T02850215  RH  066%=      5-min Rain = 0
KST2 102239Z 15007KT 29/21 A3007 RMK A01 T02850213  RH  065%=      5-min Rain = 0
KST2 102240Z 15007KT 29/21 A3007 RMK A01 T02860214  RH  065%=      5-min Rain = 0
KST2 102241Z 15006KT 29/22 A3007 RMK A01 T02860219  RH  067%=      5-min Rain = 0
KST2 102242Z 15006KT 29/21 A3007 RMK A01 T02860212  RH  064%=      5-min Rain = 0
KST2 102243Z 15007KT 29/22 A3007 RMK A01 T02860217  RH  066%=      5-min Rain = 0
KST2 102244Z 15007KT 29/22 A3007 RMK A01 T02870215  RH  065%=      5-min Rain = 0
KST2 102245Z 16006KT 29/21 A3007 RMK A01 T02880213  RH  064%=      5-min Rain = 0
KST2 102246Z 16006KT 29/21 A3007 RMK A01 T02880214  RH  064%=      5-min Rain = 0
KST2 102247Z 15005KT 29/22 A3007 RMK A01 T02880219  RH  066%=      5-min Rain = 0
KST2 102248Z 15006KT 29/22 A3007 RMK A01 T02890217  RH  065%=      5-min Rain = 0
KST2 102249Z 16006KT 29/21 A3006 RMK A01 T02890214  RH  064%=      5-min Rain = 0
KST2 102250Z 15007KT 29/22 A3006 RMK A01 T02890218  RH  066%=      5-min Rain = 0
KST2 102251Z 15007KT 29/22 A3006 RMK A01 T02900216  RH  065%=      5-min Rain = 0
KST2 102252Z 16006KT 29/22 A3006 RMK A01 T02900220  RH  066%=      5-min Rain = 0
KST2 102253Z 15007KT 29/21 A3006 RMK A01 T02900213  RH  063%=      5-min Rain = 0
KST2 102254Z 15007KT 29/21 A3006 RMK A01 T02910212  RH  062%=      5-min Rain = 0
KST2 102255Z 14006KT 29/22 A3006 RMK A01 T02910224  RH  067%=      5-min Rain = 0
KST2 102256Z 14007KT 29/22 A3006 RMK A01 T02910222  RH  067%=      5-min Rain = 0
KST2 102257Z 14008KT 29/22 A3006 RMK A01 T02900221  RH  066%=      5-min Rain = 0
KST2 102258Z 15007KT 29/22 A3006 RMK A01 T02890219  RH  066%=      5-min Rain = 0
KST2 102259Z 14008KT 29/22 A3006 RMK A01 T02890218  RH  065%=      5-min Rain = 0
KST2 102300Z 14008KT 29/22 A3006 RMK A01 T02900221  RH  067%=      5-min Rain = 0
KST2 102301Z 14008KT 29/22 A3006 RMK A01 T02890220  RH  066%=      5-min Rain = 0
KST2 102302Z 15007KT 29/22 A3006 RMK A01 T02890219  RH  066%=      5-min Rain = 0
KST2 102303Z 15008KT 29/22 A3006 RMK A01 T02900220  RH  066%=      5-min Rain = 0
KST2 102304Z 15008KT 29/22 A3005 RMK A01 T02900218  RH  065%=      5-min Rain = 0
KST2 102305Z 15008KT 29/22 A3005 RMK A01 T02900216  RH  064%=      5-min Rain = 0
KST2 102306Z 15008KT 29/22 A3005 RMK A01 T02900215  RH  064%=      5-min Rain = 0
KST2 102307Z 15006KT 29/21 A3005 RMK A01 T02900212  RH  062%=      5-min Rain = 0
KST2 102308Z 15006KT 29/22 A3005 RMK A01 T02900216  RH  064%=      5-min Rain = 0
KST2 102309Z 15007KT 29/22 A3005 RMK A01 T02910215  RH  064%=      5-min Rain = 0
KST2 102310Z 15007KT 29/22 A3005 RMK A01 T02910215  RH  064%=      5-min Rain = 0
KST2 102311Z 15007KT 29/21 A3005 RMK A01 T02910211  RH  062%=      5-min Rain = 0
KST2 102312Z 15007KT 29/21 A3005 RMK A01 T02910213  RH  063%=      5-min Rain = 0
KST2 102313Z 16006KT 29/22 A3005 RMK A01 T02920215  RH  063%=      5-min Rain = 0
KST2 102314Z 15006KT 29/22 A3005 RMK A01 T02920215  RH  063%=      5-min Rain = 0
KST2 102315Z 16007KT 29/22 A3005 RMK A01 T02930219  RH  065%=      5-min Rain = 0
KST2 102316Z 16008KT 29/21 A3005 RMK A01 T02930212  RH  062%=      5-min Rain = 0
KST2 102317Z 16007KT 29/21 A3005 RMK A01 T02930213  RH  062%=      5-min Rain = 0
KST2 102318Z 15007KT 29/22 A3005 RMK A01 T02930218  RH  064%=      5-min Rain = 0
KST2 102319Z 15007KT 29/22 A3005 RMK A01 T02930215  RH  063%=      5-min Rain = 0
KST2 102320Z 14007KT 29/22 A3005 RMK A01 T02920218  RH  064%=      5-min Rain = 0
KST2 102321Z 14008KT 29/21 A3005 RMK A01 T02920214  RH  063%=      5-min Rain = 0
KST2 102322Z 14007KT 29/21 A3004 RMK A01 T02920213  RH  062%=      5-min Rain = 0
KST2 102323Z 15007KT 29/21 A3004 RMK A01 T02920212  RH  062%=      5-min Rain = 0
KST2 102324Z 15006KT 29/21 A3004 RMK A01 T02920210  RH  061%=      5-min Rain = 0
KST2 102325Z 15008KT 29/21 A3004 RMK A01 T02920213  RH  062%=      5-min Rain = 0
KST2 102326Z 15007KT 29/21 A3004 RMK A01 T02930210  RH  061%=      5-min Rain = 0
KST2 102327Z 15007KT 29/21 A3004 RMK A01 T02930210  RH  061%=      5-min Rain = 0
KST2 102328Z 15007KT 29/21 A3004 RMK A01 T02930209  RH  061%=      5-min Rain = 0
KST2 102329Z 15007KT 29/21 A3004 RMK A01 T02930214  RH  062%=      5-min Rain = 0
KST2 102330Z 15006KT 29/22 A3004 RMK A01 T02930216  RH  063%=      5-min Rain = 0
KST2 102331Z 14007KT 29/22 A3004 RMK A01 T02940215  RH  062%=      5-min Rain = 0
KST2 102332Z 15008KT 29/21 A3004 RMK A01 T02940214  RH  062%=      5-min Rain = 0
KST2 102333Z 15009KT 29/21 A3004 RMK A01 T02940211  RH  061%=      5-min Rain = 0
KST2 102334Z 15008KT 29/21 A3004 RMK A01 T02940209  RH  060%=      5-min Rain = 0
KST2 102335Z 14007KT 29/21 A3004 RMK A01 T02940212  RH  061%=      5-min Rain = 0
KST2 102336Z 14007KT 29/21 A3004 RMK A01 T02940210  RH  061%=      5-min Rain = 0
KST2 102337Z 14007KT 29/21 A3004 RMK A01 T02940208  RH  060%=      5-min Rain = 0
KST2 102338Z 15007KT 29/21 A3004 RMK A01 T02940211  RH  061%=      5-min Rain = 0
KST2 102339Z 15008KT 29/21 A3004 RMK A01 T02940209  RH  060%=      5-min Rain = 0
KST2 102340Z 15008KT 29/21 A3004 RMK A01 T02940207  RH  059%=      5-min Rain = 0
KST2 102341Z 14007KT 30/21 A3004 RMK A01 T02950208  RH  060%=      5-min Rain = 0
KST2 102342Z 15008KT 29/21 A3004 RMK A01 T02940209  RH  060%=      5-min Rain = 0
KST2 102343Z 15007KT 29/21 A3004 RMK A01 T02940211  RH  061%=      5-min Rain = 0
KST2 102344Z 15007KT 30/21 A3004 RMK A01 T02950211  RH  061%=      5-min Rain = 0
KST2 102345Z 16007KT 30/21 A3004 RMK A01 T02950206  RH  059%=      5-min Rain = 0
KST2 102346Z 14005KT 30/21 A3004 RMK A01 T02960213  RH  061%=      5-min Rain = 0
KST2 102347Z 14006KT 30/21 A3004 RMK A01 T02960213  RH  061%=      5-min Rain = 0
KST2 102348Z 14007KT 30/21 A3004 RMK A01 T02960210  RH  060%=      5-min Rain = 0
KST2 102349Z 14006KT 30/21 A3004 RMK A01 T02960208  RH  059%=      5-min Rain = 0
KST2 102350Z 14006KT 30/21 A3004 RMK A01 T02960211  RH  060%=      5-min Rain = 0
KST2 102351Z 14006KT 30/21 A3004 RMK A01 T02960210  RH  060%=      5-min Rain = 0
KST2 102352Z 15007KT 30/21 A3004 RMK A01 T02960210  RH  060%=      5-min Rain = 0
KST2 102353Z 14006KT 30/21 A3004 RMK A01 T02960208  RH  059%=      5-min Rain = 0
KST2 102354Z 14005KT 30/21 A3004 RMK A01 T02960210  RH  060%=      5-min Rain = 0
KST2 102355Z 14006KT 30/21 A3004 RMK A01 T02970211  RH  060%=      5-min Rain = 0
KST2 102356Z 14005KT 30/21 A3004 RMK A01 T02970210  RH  059%=      5-min Rain = 0
KST2 102357Z 14005KT 30/21 A3004 RMK A01 T02970212  RH  060%=      5-min Rain = 0
KST2 102358Z 14006KT 30/21 A3004 RMK A01 T02980210  RH  059%=      5-min Rain = 0
KST2 102359Z 14005KT 30/21 A3004 RMK A01 T02980212  RH  060%=      5-min Rain = 0
KST2 110000Z 13005KT 30/21 A3004 RMK A01 T02980212  RH  060%=      5-min Rain = 0
KST2 110001Z 14005KT 30/22 A3004 RMK A01 T02970216  RH  062%=      5-min Rain = 0
KST2 110002Z 14006KT 30/21 A3004 RMK A01 T02980213  RH  060%=      5-min Rain = 0
KST2 110003Z 14005KT 30/21 A3004 RMK A01 T02980212  RH  060%=      5-min Rain = 0
KST2 110004Z 13006KT 30/21 A3004 RMK A01 T02980213  RH  061%=      5-min Rain = 0
KST2 110005Z 14006KT 30/22 A3004 RMK A01 T02980215  RH  061%=      5-min Rain = 0
KST2 110006Z 14006KT 30/21 A3004 RMK A01 T02980213  RH  060%=      5-min Rain = 0
KST2 110007Z 13006KT 30/22 A3004 RMK A01 T02980215  RH  061%=      5-min Rain = 0
KST2 110008Z 14006KT 30/22 A3004 RMK A01 T02980215  RH  061%=      5-min Rain = 0
KST2 110009Z 14005KT 30/21 A3004 RMK A01 T02980214  RH  061%=      5-min Rain = 0
KST2 110010Z 13006KT 30/21 A3004 RMK A01 T02980214  RH  061%=      5-min Rain = 0
KST2 110011Z 13007KT 30/21 A3004 RMK A01 T02980213  RH  060%=      5-min Rain = 0
KST2 110012Z 13006KT 30/21 A3004 RMK A01 T02980212  RH  060%=      5-min Rain = 0
KST2 110013Z 13007KT 30/21 A3004 RMK A01 T02990210  RH  059%=      5-min Rain = 0
KST2 110014Z 13007KT 30/21 A3004 RMK A01 T02990212  RH  059%=      5-min Rain = 0
KST2 110015Z 13007KT 30/21 A3004 RMK A01 T02990213  RH  060%=      5-min Rain = 0
KST2 110016Z 13007KT 30/21 A3004 RMK A01 T02990211  RH  059%=      5-min Rain = 0
KST2 110017Z 13006KT 30/21 A3004 RMK A01 T03000214  RH  060%=      5-min Rain = 0
KST2 110018Z 13006KT 30/22 A3004 RMK A01 T02990216  RH  061%=      5-min Rain = 0
KST2 110019Z 13005KT 30/22 A3004 RMK A01 T02990218  RH  061%=      5-min Rain = 0
KST2 110020Z 12006KT 30/22 A3004 RMK A01 T03000217  RH  061%=      5-min Rain = 0
KST2 110021Z 12006KT 30/22 A3004 RMK A01 T03000217  RH  061%=      5-min Rain = 0
KST2 110022Z 13006KT 30/22 A3004 RMK A01 T03000218  RH  061%=      5-min Rain = 0
KST2 110023Z 13007KT 30/21 A3004 RMK A01 T03000213  RH  059%=      5-min Rain = 0
KST2 110024Z 13007KT 30/22 A3004 RMK A01 T03000215  RH  060%=      5-min Rain = 0
KST2 110025Z 13008KT 30/21 A3004 RMK A01 T03000211  RH  059%=      5-min Rain = 0
KST2 110026Z 13008KT 30/21 A3004 RMK A01 T03000210  RH  059%=      5-min Rain = 0
KST2 110027Z 14007KT 30/21 A3004 RMK A01 T03010211  RH  059%=      5-min Rain = 0
KST2 110028Z 14008KT 30/21 A3004 RMK A01 T03000209  RH  058%=      5-min Rain = 0
KST2 110029Z 14007KT 30/21 A3004 RMK A01 T03000210  RH  058%=      5-min Rain = 0
KST2 110030Z 13007KT 30/21 A3004 RMK A01 T03000210  RH  058%=      5-min Rain = 0
KST2 110031Z 14007KT 30/21 A3004 RMK A01 T03010209  RH  058%=      5-min Rain = 0
KST2 110032Z 14006KT 30/21 A3004 RMK A01 T03010211  RH  059%=      5-min Rain = 0
KST2 110033Z 14006KT 30/21 A3004 RMK A01 T03010211  RH  059%=      5-min Rain = 0
KST2 110034Z 14006KT 30/21 A3004 RMK A01 T03020213  RH  059%=      5-min Rain = 0
KST2 110035Z 13006KT 30/21 A3005 RMK A01 T03020212  RH  058%=      5-min Rain = 0
KST2 110036Z 13006KT 30/22 A3005 RMK A01 T03020216  RH  060%=      5-min Rain = 0
KST2 110037Z 13006KT 30/22 A3005 RMK A01 T03020219  RH  061%=      5-min Rain = 0
KST2 110038Z 13007KT 30/21 A3005 RMK A01 T03030214  RH  059%=      5-min Rain = 0
KST2 110039Z 13007KT 30/22 A3005 RMK A01 T03030215  RH  059%=      5-min Rain = 0
KST2 110040Z 13007KT 30/22 A3005 RMK A01 T03020217  RH  060%=      5-min Rain = 0
KST2 110041Z 13008KT 30/22 A3005 RMK A01 T03020216  RH  060%=      5-min Rain = 0
KST2 110042Z 13008KT 30/22 A3005 RMK A01 T03020215  RH  059%=      5-min Rain = 0
KST2 110043Z 13008KT 30/21 A3005 RMK A01 T03020214  RH  059%=      5-min Rain = 0
KST2 110044Z 13009KT 30/21 A3005 RMK A01 T03010211  RH  058%=      5-min Rain = 0
KST2 110045Z 13007KT 30/21 A3005 RMK A01 T03000211  RH  059%=      5-min Rain = 0
KST2 110046Z 13008KT 30/21 A3005 RMK A01 T03000211  RH  059%=      5-min Rain = 0
KST2 110047Z 13008KT 30/21 A3005 RMK A01 T03000208  RH  058%=      5-min Rain = 0
KST2 110048Z 13008KT 30/21 A3005 RMK A01 T03000208  RH  058%=      5-min Rain = 0
KST2 110049Z 13008KT 30/21 A3005 RMK A01 T02990210  RH  059%=      5-min Rain = 0
KST2 110050Z 13008KT 30/21 A3005 RMK A01 T02990210  RH  059%=      5-min Rain = 0
KST2 110051Z 13009KT 30/21 A3005 RMK A01 T02990208  RH  058%=      5-min Rain = 0
KST2 110052Z 13007KT 30/21 A3005 RMK A01 T02980206  RH  058%=      5-min Rain = 0
KST2 110053Z 12007KT 30/21 A3005 RMK A01 T02980205  RH  057%=      5-min Rain = 0
KST2 110054Z 12007KT 30/20 A3005 RMK A01 T02980203  RH  057%=      5-min Rain = 0
KST2 110055Z 13008KT 30/20 A3005 RMK A01 T02980203  RH  057%=      5-min Rain = 0
KST2 110056Z 12007KT 30/20 A3005 RMK A01 T02970204  RH  057%=      5-min Rain = 0
KST2 110057Z 12006KT 30/21 A3005 RMK A01 T02970207  RH  058%=      5-min Rain = 0
KST2 110058Z 12006KT 30/21 A3005 RMK A01 T02970207  RH  059%=      5-min Rain = 0
KST2 110059Z 12006KT 30/21 A3005 RMK A01 T02960207  RH  059%=      5-min Rain = 0
KST2 110100Z 13006KT 30/21 A3005 RMK A01 T02960209  RH  059%=      5-min Rain = 0
KST2 110101Z 13006KT 30/21 A3005 RMK A01 T02960207  RH  059%=      5-min Rain = 0
KST2 110102Z 13005KT 30/21 A3005 RMK A01 T02960211  RH  060%=      5-min Rain = 0
KST2 110103Z 13006KT 30/21 A3005 RMK A01 T02960210  RH  060%=      5-min Rain = 0
KST2 110104Z 14006KT 30/21 A3005 RMK A01 T02960208  RH  059%=      5-min Rain = 0
KST2 110105Z 14006KT 30/21 A3005 RMK A01 T02960209  RH  060%=      5-min Rain = 0
KST2 110106Z 14006KT 30/21 A3005 RMK A01 T02960206  RH  058%=      5-min Rain = 0
KST2 110107Z 14006KT 30/21 A3005 RMK A01 T02950209  RH  060%=      5-min Rain = 0
KST2 110108Z 13007KT 30/21 A3005 RMK A01 T02950207  RH  059%=      5-min Rain = 0
KST2 110109Z 13007KT 29/21 A3005 RMK A01 T02940209  RH  060%=      5-min Rain = 0
KST2 110110Z 14006KT 29/21 A3005 RMK A01 T02930207  RH  060%=      5-min Rain = 0
KST2 110111Z 13006KT 29/21 A3005 RMK A01 T02930207  RH  060%=      5-min Rain = 0
KST2 110112Z 13006KT 29/21 A3005 RMK A01 T02920208  RH  061%=      5-min Rain = 0
KST2 110113Z 13006KT 29/21 A3005 RMK A01 T02920209  RH  061%=      5-min Rain = 0
KST2 110114Z 13006KT 29/21 A3005 RMK A01 T02910209  RH  061%=      5-min Rain = 0
KST2 110115Z 13005KT 29/21 A3005 RMK A01 T02900209  RH  062%=      5-min Rain = 0
KST2 110116Z 13005KT 29/21 A3005 RMK A01 T02900211  RH  062%=      5-min Rain = 0
KST2 110117Z 13005KT 29/21 A3005 RMK A01 T02900210  RH  062%=      5-min Rain = 0
KST2 110118Z 14005KT 29/21 A3005 RMK A01 T02890210  RH  062%=      5-min Rain = 0
KST2 110119Z 14005KT 29/21 A3005 RMK A01 T02880210  RH  063%=      5-min Rain = 0
KST2 110120Z 14005KT 29/21 A3005 RMK A01 T02880209  RH  062%=      5-min Rain = 0
KST2 110121Z 14005KT 29/21 A3005 RMK A01 T02870208  RH  062%=      5-min Rain = 0
KST2 110122Z 14005KT 29/21 A3005 RMK A01 T02870209  RH  063%=      5-min Rain = 0
KST2 110123Z 14005KT 29/21 A3005 RMK A01 T02870210  RH  063%=      5-min Rain = 0
KST2 110124Z 14005KT 29/21 A3005 RMK A01 T02870211  RH  063%=      5-min Rain = 0
KST2 110125Z 14005KT 29/21 A3005 RMK A01 T02860211  RH  064%=      5-min Rain = 0
KST2 110126Z 14005KT 29/21 A3005 RMK A01 T02860211  RH  064%=      5-min Rain = 0
KST2 110127Z 14005KT 29/21 A3005 RMK A01 T02850212  RH  064%=      5-min Rain = 0
KST2 110128Z 13004KT 29/21 A3005 RMK A01 T02850213  RH  065%=      5-min Rain = 0
KST2 110129Z 13004KT 28/21 A3005 RMK A01 T02840213  RH  065%=      5-min Rain = 0
KST2 110130Z 14004KT 28/21 A3005 RMK A01 T02840213  RH  066%=      5-min Rain = 0
KST2 110131Z 13004KT 28/21 A3005 RMK A01 T02830214  RH  066%=      5-min Rain = 0
KST2 110132Z 13004KT 28/21 A3005 RMK A01 T02830214  RH  066%=      5-min Rain = 0
KST2 110133Z 13004KT 28/21 A3005 RMK A01 T02820214  RH  067%=      5-min Rain = 0
KST2 110134Z 13004KT 28/21 A3005 RMK A01 T02820214  RH  067%=      5-min Rain = 0
KST2 110135Z 13004KT 28/21 A3005 RMK A01 T02810214  RH  067%=      5-min Rain = 0
KST2 110136Z 13004KT 28/22 A3005 RMK A01 T02810216  RH  068%=      5-min Rain = 0
KST2 110137Z 13004KT 28/22 A3005 RMK A01 T02800216  RH  068%=      5-min Rain = 0
KST2 110138Z 13004KT 28/22 A3005 RMK A01 T02800217  RH  069%=      5-min Rain = 0
KST2 110139Z 13005KT 28/22 A3005 RMK A01 T02790217  RH  069%=      5-min Rain = 0
KST2 110140Z 13005KT 28/22 A3005 RMK A01 T02790216  RH  069%=      5-min Rain = 0
KST2 110141Z 14005KT 28/22 A3006 RMK A01 T02780216  RH  069%=      5-min Rain = 0
KST2 110142Z 14006KT 28/22 A3006 RMK A01 T02780217  RH  069%=      5-min Rain = 0
KST2 110143Z 14006KT 28/22 A3006 RMK A01 T02780217  RH  070%=      5-min Rain = 0
KST2 110144Z 14006KT 28/22 A3006 RMK A01 T02770217  RH  070%=      5-min Rain = 0
KST2 110145Z 14006KT 28/22 A3006 RMK A01 T02770216  RH  069%=      5-min Rain = 0
KST2 110146Z 14006KT 28/22 A3006 RMK A01 T02770215  RH  069%=      5-min Rain = 0
KST2 110147Z 14006KT 28/22 A3006 RMK A01 T02760216  RH  069%=      5-min Rain = 0
KST2 110148Z 14007KT 28/22 A3006 RMK A01 T02760216  RH  070%=      5-min Rain = 0
KST2 110149Z 13006KT 28/22 A3006 RMK A01 T02750216  RH  070%=      5-min Rain = 0
KST2 110150Z 13006KT 28/22 A3006 RMK A01 T02750216  RH  070%=      5-min Rain = 0
KST2 110151Z 13005KT 27/22 A3006 RMK A01 T02740216  RH  070%=      5-min Rain = 0
KST2 110152Z 13005KT 27/22 A3006 RMK A01 T02740216  RH  071%=      5-min Rain = 0
KST2 110153Z 13005KT 27/22 A3006 RMK A01 T02730217  RH  071%=      5-min Rain = 0
KST2 110154Z 12005KT 27/22 A3006 RMK A01 T02720217  RH  072%=      5-min Rain = 0
KST2 110155Z 12005KT 27/22 A3006 RMK A01 T02710218  RH  073%=      5-min Rain = 0
KST2 110156Z 12006KT 27/22 A3006 RMK A01 T02700219  RH  074%=      5-min Rain = 0
KST2 110157Z 13006KT 27/22 A3006 RMK A01 T02690219  RH  074%=      5-min Rain = 0
KST2 110158Z 13006KT 27/22 A3006 RMK A01 T02690219  RH  074%=      5-min Rain = 0
KST2 110159Z 13006KT 27/22 A3006 RMK A01 T02680219  RH  074%=      5-min Rain = 0
KST2 110200Z 13006KT 27/22 A3006 RMK A01 T02680218  RH  074%=      5-min Rain = 0
KST2 110201Z 13006KT 27/22 A3006 RMK A01 T02680218  RH  074%=      5-min Rain = 0
KST2 110202Z 13006KT 27/22 A3006 RMK A01 T02680218  RH  074%=      5-min Rain = 0
KST2 110203Z 13005KT 27/22 A3006 RMK A01 T02670218  RH  075%=      5-min Rain = 0
KST2 110204Z 13005KT 27/22 A3006 RMK A01 T02670219  RH  075%=      5-min Rain = 0
KST2 110205Z 13006KT 27/22 A3006 RMK A01 T02660219  RH  075%=      5-min Rain = 0
KST2 110206Z 13006KT 27/22 A3006 RMK A01 T02660218  RH  075%=      5-min Rain = 0
KST2 110207Z 13006KT 27/22 A3006 RMK A01 T02660218  RH  075%=      5-min Rain = 0
KST2 110208Z 13006KT 27/22 A3006 RMK A01 T02660218  RH  075%=      5-min Rain = 0
KST2 110209Z 13005KT 27/22 A3006 RMK A01 T02650217  RH  075%=      5-min Rain = 0
KST2 110210Z 13005KT 27/22 A3006 RMK A01 T02660218  RH  075%=      5-min Rain = 0
KST2 110211Z 13006KT 27/22 A3006 RMK A01 T02650218  RH  075%=      5-min Rain = 0
KST2 110212Z 13005KT 27/22 A3006 RMK A01 T02650218  RH  075%=      5-min Rain = 0
KST2 110213Z 13005KT 27/22 A3006 RMK A01 T02650218  RH  075%=      5-min Rain = 0
KST2 110214Z 13005KT 26/22 A3006 RMK A01 T02640218  RH  076%=      5-min Rain = 0
KST2 110215Z 13005KT 26/22 A3006 RMK A01 T02640217  RH  075%=      5-min Rain = 0
KST2 110216Z 13005KT 26/22 A3006 RMK A01 T02640216  RH  075%=      5-min Rain = 0
KST2 110217Z 13006KT 26/22 A3006 RMK A01 T02640215  RH  074%=      5-min Rain = 0
KST2 110218Z 13006KT 26/22 A3006 RMK A01 T02640215  RH  074%=      5-min Rain = 0
KST2 110219Z 13006KT 26/21 A3006 RMK A01 T02640214  RH  074%=      5-min Rain = 0
KST2 110220Z 13006KT 26/21 A3006 RMK A01 T02640214  RH  074%=      5-min Rain = 0
KST2 110221Z 13006KT 27/21 A3006 RMK A01 T02650214  RH  074%=      5-min Rain = 0
KST2 110222Z 14006KT 26/21 A3006 RMK A01 T02640214  RH  074%=      5-min Rain = 0
KST2 110223Z 14006KT 26/21 A3006 RMK A01 T02640214  RH  074%=      5-min Rain = 0
KST2 110224Z 14006KT 26/21 A3006 RMK A01 T02640214  RH  074%=      5-min Rain = 0
KST2 110225Z 14006KT 26/21 A3006 RMK A01 T02630214  RH  074%=      5-min Rain = 0
KST2 110226Z 13005KT 26/21 A3006 RMK A01 T02630214  RH  074%=      5-min Rain = 0
KST2 110227Z 13005KT 26/21 A3006 RMK A01 T02630214  RH  075%=      5-min Rain = 0
KST2 110228Z 14005KT 26/21 A3006 RMK A01 T02620214  RH  075%=      5-min Rain = 0
KST2 110229Z 14005KT 26/22 A3006 RMK A01 T02620215  RH  075%=      5-min Rain = 0
KST2 110230Z 14005KT 26/22 A3006 RMK A01 T02610215  RH  076%=      5-min Rain = 0
KST2 110231Z 14005KT 26/21 A3006 RMK A01 T02610214  RH  076%=      5-min Rain = 0
KST2 110232Z 14005KT 26/21 A3006 RMK A01 T02600214  RH  076%=      5-min Rain = 0
KST2 110233Z 14005KT 26/22 A3006 RMK A01 T02600215  RH  076%=      5-min Rain = 0
KST2 110234Z 14005KT 26/22 A3006 RMK A01 T02590215  RH  076%=      5-min Rain = 0
KST2 110235Z 13005KT 26/22 A3006 RMK A01 T02590215  RH  077%=      5-min Rain = 0
KST2 110236Z 13005KT 26/22 A3006 RMK A01 T02580215  RH  077%=      5-min Rain = 0
KST2 110237Z 13005KT 26/22 A3006 RMK A01 T02580216  RH  078%=      5-min Rain = 0
KST2 110238Z 13005KT 26/22 A3006 RMK A01 T02570216  RH  078%=      5-min Rain = 0
KST2 110239Z 13005KT 26/22 A3006 RMK A01 T02560216  RH  078%=      5-min Rain = 0
KST2 110240Z 13005KT 26/22 A3006 RMK A01 T02560215  RH  078%=      5-min Rain = 0
KST2 110241Z 13005KT 26/22 A3006 RMK A01 T02550215  RH  078%=      5-min Rain = 0
KST2 110242Z 13005KT 26/22 A3006 RMK A01 T02560216  RH  079%=      5-min Rain = 0
KST2 110243Z 13005KT 26/22 A3006 RMK A01 T02550215  RH  079%=      5-min Rain = 0
KST2 110244Z 13005KT 26/22 A3006 RMK A01 T02550215  RH  079%=      5-min Rain = 0
KST2 110245Z 13005KT 26/22 A3006 RMK A01 T02550215  RH  079%=      5-min Rain = 0
KST2 110246Z 13005KT 26/22 A3006 RMK A01 T02550215  RH  079%=      5-min Rain = 0
KST2 110247Z 13005KT 25/22 A3006 RMK A01 T02540215  RH  079%=      5-min Rain = 0
KST2 110248Z 13005KT 26/22 A3006 RMK A01 T02550215  RH  079%=      5-min Rain = 0
KST2 110249Z 13005KT 25/22 A3007 RMK A01 T02540216  RH  079%=      5-min Rain = 0
KST2 110250Z 13005KT 25/22 A3007 RMK A01 T02540216  RH  080%=      5-min Rain = 0
KST2 110251Z 13005KT 25/22 A3007 RMK A01 T02530217  RH  080%=      5-min Rain = 0
KST2 110252Z 13005KT 25/22 A3007 RMK A01 T02530217  RH  081%=      5-min Rain = 0
KST2 110253Z 13005KT 25/22 A3007 RMK A01 T02520217  RH  081%=      5-min Rain = 0
KST2 110254Z 13005KT 25/22 A3007 RMK A01 T02520216  RH  081%=      5-min Rain = 0
KST2 110255Z 13006KT 25/22 A3007 RMK A01 T02520216  RH  080%=      5-min Rain = 0
KST2 110256Z 12006KT 25/22 A3007 RMK A01 T02520216  RH  080%=      5-min Rain = 0
KST2 110257Z 12006KT 25/22 A3007 RMK A01 T02520215  RH  080%=      5-min Rain = 0
KST2 110258Z 12006KT 25/22 A3007 RMK A01 T02520215  RH  080%=      5-min Rain = 0
KST2 110259Z 12006KT 25/21 A3007 RMK A01 T02520214  RH  079%=      5-min Rain = 0
KST2 110300Z 12007KT 25/21 A3007 RMK A01 T02520212  RH  079%=      5-min Rain = 0
KST2 110301Z 12007KT 25/21 A3007 RMK A01 T02530212  RH  078%=      5-min Rain = 0
KST2 110302Z 13007KT 25/21 A3007 RMK A01 T02540210  RH  076%=      5-min Rain = 0
KST2 110303Z 13007KT 26/21 A3007 RMK A01 T02550209  RH  075%=      5-min Rain = 0
KST2 110304Z 13008KT 26/21 A3007 RMK A01 T02560208  RH  075%=      5-min Rain = 0
KST2 110305Z 13007KT 26/21 A3007 RMK A01 T02570207  RH  074%=      5-min Rain = 0
KST2 110306Z 13007KT 26/21 A3007 RMK A01 T02570207  RH  074%=      5-min Rain = 0
KST2 110307Z 13007KT 26/21 A3007 RMK A01 T02570207  RH  074%=      5-min Rain = 0
KST2 110308Z 13007KT 26/21 A3007 RMK A01 T02570207  RH  074%=      5-min Rain = 0
KST2 110309Z 13007KT 26/21 A3007 RMK A01 T02560206  RH  074%=      5-min Rain = 0
KST2 110310Z 13006KT 26/21 A3007 RMK A01 T02560206  RH  074%=      5-min Rain = 0
KST2 110311Z 12006KT 26/21 A3007 RMK A01 T02560206  RH  074%=      5-min Rain = 0
KST2 110312Z 12006KT 26/21 A3007 RMK A01 T02550206  RH  074%=      5-min Rain = 0
KST2 110313Z 12006KT 26/21 A3007 RMK A01 T02550206  RH  075%=      5-min Rain = 0
KST2 110314Z 12006KT 25/21 A3007 RMK A01 T02540207  RH  075%=      5-min Rain = 0
KST2 110315Z 12005KT 25/21 A3007 RMK A01 T02540207  RH  075%=      5-min Rain = 0
KST2 110316Z 12005KT 25/21 A3007 RMK A01 T02530207  RH  076%=      5-min Rain = 0
KST2 110317Z 12005KT 25/21 A3008 RMK A01 T02520207  RH  076%=      5-min Rain = 0
KST2 110318Z 12004KT 25/21 A3008 RMK A01 T02520208  RH  077%=      5-min Rain = 0
KST2 110319Z 12004KT 25/21 A3008 RMK A01 T02510208  RH  077%=      5-min Rain = 0
KST2 110320Z 12004KT 25/21 A3008 RMK A01 T02510208  RH  077%=      5-min Rain = 0
KST2 110321Z 11004KT 25/21 A3008 RMK A01 T02500208  RH  078%=      5-min Rain = 0
KST2 110322Z 11004KT 25/21 A3008 RMK A01 T02500209  RH  078%=      5-min Rain = 0
KST2 110323Z 11003KT 25/21 A3008 RMK A01 T02490210  RH  079%=      5-min Rain = 0
KST2 110324Z 11003KT 25/21 A3008 RMK A01 T02490210  RH  079%=      5-min Rain = 0
KST2 110325Z 11003KT 25/21 A3008 RMK A01 T02490210  RH  079%=      5-min Rain = 0
KST2 110326Z 11003KT 25/21 A3008 RMK A01 T02480210  RH  079%=      5-min Rain = 0
KST2 110327Z 10003KT 25/21 A3008 RMK A01 T02480210  RH  079%=      5-min Rain = 0
KST2 110328Z 11004KT 25/21 A3008 RMK A01 T02490209  RH  079%=      5-min Rain = 0
KST2 110329Z 11003KT 25/21 A3008 RMK A01 T02490208  RH  078%=      5-min Rain = 0
KST2 110330Z 11004KT 25/21 A3008 RMK A01 T02490209  RH  078%=      5-min Rain = 0
KST2 110331Z 10004KT 25/21 A3008 RMK A01 T02490208  RH  078%=      5-min Rain = 0
KST2 110332Z 10003KT 25/21 A3008 RMK A01 T02500209  RH  078%=      5-min Rain = 0
KST2 110333Z 10004KT 25/21 A3008 RMK A01 T02500209  RH  078%=      5-min Rain = 0
KST2 110334Z 10004KT 25/21 A3008 RMK A01 T02490208  RH  078%=      5-min Rain = 0
KST2 110335Z 10004KT 25/21 A3008 RMK A01 T02490209  RH  078%=      5-min Rain = 0
KST2 110336Z 10004KT 25/21 A3008 RMK A01 T02490209  RH  078%=      5-min Rain = 0
KST2 110337Z 10004KT 25/21 A3008 RMK A01 T02490209  RH  078%=      5-min Rain = 0
KST2 110338Z 10004KT 25/21 A3008 RMK A01 T02490209  RH  079%=      5-min Rain = 0
KST2 110339Z 10004KT 25/21 A3008 RMK A01 T02480209  RH  079%=      5-min Rain = 0
KST2 110340Z 10004KT 25/21 A3008 RMK A01 T02480210  RH  079%=      5-min Rain = 0
KST2 110341Z 10004KT 25/21 A3008 RMK A01 T02470211  RH  080%=      5-min Rain = 0
KST2 110342Z 10004KT 25/21 A3008 RMK A01 T02460211  RH  081%=      5-min Rain = 0
KST2 110343Z 09004KT 25/21 A3008 RMK A01 T02460212  RH  081%=      5-min Rain = 0
KST2 110344Z 09004KT 25/21 A3008 RMK A01 T02450212  RH  082%=      5-min Rain = 0
KST2 110345Z 09004KT 25/21 A3008 RMK A01 T02450212  RH  082%=      5-min Rain = 0
KST2 110346Z 09004KT 25/21 A3008 RMK A01 T02460211  RH  081%=      5-min Rain = 0
KST2 110347Z 09004KT 25/21 A3008 RMK A01 T02450211  RH  081%=      5-min Rain = 0
KST2 110348Z 09003KT 25/21 A3008 RMK A01 T02450211  RH  081%=      5-min Rain = 0
KST2 110349Z 09003KT 25/21 A3009 RMK A01 T02450211  RH  081%=      5-min Rain = 0
KST2 110350Z 09003KT 25/21 A3009 RMK A01 T02450211  RH  081%=      5-min Rain = 0
KST2 110351Z 09003KT 25/21 A3009 RMK A01 T02450211  RH  081%=      5-min Rain = 0
KST2 110352Z 09003KT 25/21 A3009 RMK A01 T02450211  RH  081%=      5-min Rain = 0
KST2 110353Z 09003KT 25/21 A3009 RMK A01 T02450211  RH  081%=      5-min Rain = 0
KST2 110354Z 09003KT 25/21 A3009 RMK A01 T02450210  RH  081%=      5-min Rain = 0
KST2 110355Z 09003KT 25/21 A3009 RMK A01 T02450210  RH  081%=      5-min Rain = 0
KST2 110356Z 09003KT 25/21 A3008 RMK A01 T02450210  RH  081%=      5-min Rain = 0
KST2 110357Z 10003KT 25/21 A3008 RMK A01 T02450210  RH  081%=      5-min Rain = 0
KST2 110358Z 10003KT 25/21 A3008 RMK A01 T02450210  RH  080%=      5-min Rain = 0
KST2 110359Z 10003KT 25/21 A3008 RMK A01 T02450209  RH  080%=      5-min Rain = 0
KST2 110400Z 11003KT 25/21 A3008 RMK A01 T02450209  RH  080%=      5-min Rain = 0
KST2 110401Z 11003KT 25/21 A3008 RMK A01 T02450209  RH  080%=      5-min Rain = 0
KST2 110402Z 11003KT 25/21 A3008 RMK A01 T02450209  RH  080%=      5-min Rain = 0
KST2 110403Z 11003KT 25/21 A3008 RMK A01 T02460210  RH  080%=      5-min Rain = 0
KST2 110404Z 11003KT 25/21 A3008 RMK A01 T02460209  RH  080%=      5-min Rain = 0
KST2 110405Z 11003KT 25/21 A3008 RMK A01 T02450209  RH  080%=      5-min Rain = 0
KST2 110406Z 11003KT 25/21 A3008 RMK A01 T02460209  RH  080%=      5-min Rain = 0
KST2 110407Z 11003KT 25/21 A3008 RMK A01 T02460210  RH  081%=      5-min Rain = 0
KST2 110408Z 12003KT 25/21 A3008 RMK A01 T02460210  RH  081%=      5-min Rain = 0
KST2 110409Z 12003KT 25/21 A3008 RMK A01 T02460210  RH  081%=      5-min Rain = 0
KST2 110410Z 13003KT 25/21 A3008 RMK A01 T02450210  RH  081%=      5-min Rain = 0
KST2 110411Z 13003KT 25/21 A3008 RMK A01 T02450210  RH  081%=      5-min Rain = 0
KST2 110412Z 13003KT 25/21 A3008 RMK A01 T02450209  RH  081%=      5-min Rain = 0
KST2 110413Z 13003KT 25/21 A3008 RMK A01 T02450209  RH  080%=      5-min Rain = 0
KST2 110414Z 13003KT 25/21 A3008 RMK A01 T02450209  RH  080%=      5-min Rain = 0
KST2 110415Z 13003KT 25/21 A3008 RMK A01 T02450209  RH  080%=      5-min Rain = 0
KST2 110416Z 13003KT 25/21 A3008 RMK A01 T02450209  RH  080%=      5-min Rain = 0
KST2 110417Z 13003KT 24/21 A3008 RMK A01 T02440209  RH  080%=      5-min Rain = 0
KST2 110418Z 13003KT 25/21 A3008 RMK A01 T02450209  RH  080%=      5-min Rain = 0
KST2 110419Z 13003KT 24/21 A3008 RMK A01 T02440209  RH  080%=      5-min Rain = 0
KST2 110420Z 13003KT 24/21 A3008 RMK A01 T02440207  RH  080%=      5-min Rain = 0
KST2 110421Z 13003KT 24/21 A3008 RMK A01 T02440207  RH  080%=      5-min Rain = 0
KST2 110422Z 13003KT 24/21 A3008 RMK A01 T02440207  RH  080%=      5-min Rain = 0
KST2 110423Z 14003KT 24/21 A3008 RMK A01 T02440207  RH  080%=      5-min Rain = 0
KST2 110424Z 13003KT 24/21 A3008 RMK A01 T02440208  RH  080%=      5-min Rain = 0
KST2 110425Z 14003KT 24/21 A3008 RMK A01 T02440207  RH  080%=      5-min Rain = 0
KST2 110426Z 14003KT 24/21 A3008 RMK A01 T02440207  RH  080%=      5-min Rain = 0
KST2 110427Z 14003KT 24/21 A3008 RMK A01 T02440207  RH  080%=      5-min Rain = 0
KST2 110428Z 14003KT 24/21 A3008 RMK A01 T02440207  RH  080%=      5-min Rain = 0
KST2 110429Z 14003KT 24/21 A3008 RMK A01 T02440206  RH  079%=      5-min Rain = 0
KST2 110430Z 15003KT 24/21 A3008 RMK A01 T02440206  RH  079%=      5-min Rain = 0
KST2 110431Z 14003KT 25/21 A3008 RMK A01 T02450206  RH  079%=      5-min Rain = 0
KST2 110432Z 14003KT 24/21 A3008 RMK A01 T02440206  RH  079%=      5-min Rain = 0
KST2 110433Z 14003KT 24/21 A3008 RMK A01 T02440206  RH  079%=      5-min Rain = 0
KST2 110434Z 14002KT 25/21 A3008 RMK A01 T02450206  RH  079%=      5-min Rain = 0
KST2 110435Z 13003KT 25/21 A3008 RMK A01 T02450207  RH  079%=      5-min Rain = 0
KST2 110436Z 12003KT 25/21 A3008 RMK A01 T02450206  RH  079%=      5-min Rain = 0
KST2 110437Z 12002KT 25/21 A3008 RMK A01 T02450207  RH  080%=      5-min Rain = 0
KST2 110438Z 13003KT 25/21 A3008 RMK A01 T02450207  RH  080%=      5-min Rain = 0
KST2 110439Z 12003KT 25/21 A3008 RMK A01 T02450208  RH  080%=      5-min Rain = 0
KST2 110440Z 12002KT 25/21 A3008 RMK A01 T02450207  RH  080%=      5-min Rain = 0
KST2 110441Z 12003KT 25/21 A3008 RMK A01 T02450208  RH  080%=      5-min Rain = 0
KST2 110442Z 12003KT 25/21 A3008 RMK A01 T02450209  RH  080%=      5-min Rain = 0
KST2 110443Z 12003KT 24/21 A3008 RMK A01 T02440209  RH  080%=      5-min Rain = 0
KST2 110444Z 12003KT 24/21 A3008 RMK A01 T02440208  RH  080%=      5-min Rain = 0
KST2 110445Z 12003KT 24/21 A3008 RMK A01 T02440208  RH  080%=      5-min Rain = 0
KST2 110446Z 12003KT 24/21 A3008 RMK A01 T02440208  RH  080%=      5-min Rain = 0
KST2 110447Z 12003KT 25/21 A3008 RMK A01 T02450209  RH  080%=      5-min Rain = 0
KST2 110448Z 12004KT 25/21 A3008 RMK A01 T02450209  RH  080%=      5-min Rain = 0
KST2 110449Z 13004KT 25/21 A3008 RMK A01 T02450209  RH  081%=      5-min Rain = 0
KST2 110450Z 13004KT 24/21 A3008 RMK A01 T02440209  RH  081%=      5-min Rain = 0
KST2 110451Z 13005KT 24/21 A3008 RMK A01 T02440209  RH  081%=      5-min Rain = 0
KST2 110452Z 13005KT 24/21 A3008 RMK A01 T02440209  RH  081%=      5-min Rain = 0
KST2 110453Z 13005KT 24/21 A3008 RMK A01 T02440209  RH  081%=      5-min Rain = 0
KST2 110454Z 13005KT 24/21 A3008 RMK A01 T02440209  RH  081%=      5-min Rain = 0
KST2 110455Z 13006KT 25/21 A3008 RMK A01 T02450209  RH  080%=      5-min Rain = 0
KST2 110456Z 13006KT 25/21 A3008 RMK A01 T02460209  RH  080%=      5-min Rain = 0
KST2 110457Z 13007KT 25/21 A3008 RMK A01 T02470209  RH  080%=      5-min Rain = 0
KST2 110458Z 13007KT 25/21 A3008 RMK A01 T02470209  RH  079%=      5-min Rain = 0
KST2 110459Z 13007KT 25/21 A3008 RMK A01 T02490209  RH  078%=      5-min Rain = 0

Page generated in 0.1218 seconds.